GFSNE_925_thetae_000.txt.gz
Theta_e
297 297 298 298 296 296 296 296 297 298 299 298 301 304 305 307 310 311 314 312 314 314 314 313 316 317 319 318 317 312 313 313 313 311 308 307 304 302
295 296 297 297 296 296 296 296 296 297 299 297 297 304 305 307 308 309 311 311 311 311 314 314 313 315 315 317 317 315 314 313 311 309 306 303 302 300
293 294 295 296 296 296 295 295 295 296 298 297 297 298 301 302 303 304 306 308 311 313 309 312 313 312 313 314 316 316 315 311 309 306 303 301 299 297
292 292 293 295 295 295 295 295 294 294 295 299 297 297 299 300 301 300 301 305 307 311 312 309 308 311 311 312 316 315 312 309 306 304 301 297 297 296
291 291 292 292 293 294 294 294 294 294 294 296 297 296 297 299 301 301 302 303 305 306 310 310 307 309 311 315 316 313 309 306 305 299 296 295 295 294
288 288 289 291 292 292 293 293 294 294 295 295 295 296 297 299 299 299 299 301 303 305 305 308 308 310 313 315 313 310 307 304 298 298 298 296 293 292
286 286 287 287 288 289 291 292 293 294 295 295 296 296 297 298 298 298 299 297 297 301 301 303 303 309 311 310 307 305 302 297 300 304 301 293 291 289
285 285 286 286 287 287 287 288 290 292 293 294 295 297 297 298 298 298 295 293 295 292 296 295 296 298 299 300 303 301 297 300 303 303 298 291 289 286
285 285 286 286 286 287 287 287 287 288 289 290 293 295 296 297 298 298 295 297 295 292 293 289 291 291 292 295 299 297 299 298 295 299 289 288 286 282
284 285 285 286 286 287 287 288 288 289 288 288 289 293 295 296 296 298 296 295 293 291 292 287 287 286 288 291 293 294 292 291 288 287 287 284 282 282
284 284 285 285 286 286 286 287 287 288 289 289 289 290 292 293 296 298 294 293 289 288 289 285 284 284 285 286 288 288 287 286 285 284 282 282 282 282
285 285 285 285 286 286 286 286 288 288 289 289 290 290 291 291 291 296 295 295 290 288 286 284 283 283 282 285 286 286 285 285 285 284 283 283 282 281
286 287 287 287 286 285 286 286 287 287 288 289 289 289 290 291 291 291 294 295 291 289 286 287 283 281 282 282 284 285 285 284 284 283 282 282 281 281
286 286 287 286 285 287 286 286 286 287 288 290 290 290 290 290 291 293 294 294 293 294 289 288 283 284 282 282 282 281 281 282 281 281 281 280 280 279
284 285 282 283 284 285 287 286 286 286 288 288 291 290 290 290 290 291 293 293 291 290 290 286 286 284 284 283 280 279 279 279 280 280 279 278 277 276
285 284 284 284 287 288 288 286 286 287 288 289 289 291 291 289 290 288 286 286 284 282 283 283 284 282 282 282 280 279 279 278 279 279 278 277 277 277
282 284 285 284 286 288 288 288 287 287 289 290 289 288 288 286 285 285 285 284 283 281 282 281 281 282 281 280 281 279 279 279 278 278 277 277 276 276
284 284 284 284 284 284 285 288 288 288 289 289 289 288 287 286 284 284 284 285 282 282 282 281 280 279 278 278 280 280 280 279 277 277 277 278 278 277
284 284 283 282 282 282 282 284 284 284 284 285 286 286 286 285 284 285 283 284 282 282 281 280 280 281 282 282 276 278 279 278 276 276 277 278 279 278
283 283 282 282 281 281 281 281 282 283 283 283 283 282 283 283 284 283 283 282 281 280 279 280 281 282 284 280 278 275 277 277 276 277 276 276 277 275
282 282 282 281 281 280 280 280 280 280 281 282 282 282 282 282 282 282 281 281 280 280 281 281 278 278 278 276 274 274 272 274 276 276 276 276 276 276
283 282 281 281 280 280 280 281 280 280 280 281 281 281 281 280 279 279 279 280 280 280 276 274 275 276 278 278 276 274 272 271 271 272 273 274 276 278
281 282 282 282 281 281 281 280 279 279 279 280 280 280 280 280 279 279 279 278 276 276 276 276 276 276 276 276 275 275 272 271 272 272 271 269 270 271

GFSNE_925_thetae_003.txt.gz
Theta_e
297 298 298 298 299 300 301 301 301 302 302 300 301 302 305 305 304 306 311 313 316 315 318 319 320 320 320 319 317 315 312 311 311 312 311 312 312 311
295 296 296 297 298 299 299 300 300 300 301 299 299 299 302 308 307 307 306 311 312 315 314 317 318 318 320 320 319 316 313 313 313 312 312 313 311 309
293 294 295 295 296 297 297 298 299 298 300 299 298 298 299 304 305 304 307 308 306 309 311 313 314 317 317 318 319 318 316 313 313 314 313 312 309 307
292 293 293 294 295 295 296 297 298 298 298 299 298 297 298 300 300 302 303 298 304 306 308 311 311 313 316 316 317 318 318 313 313 314 312 310 308 305
291 291 292 293 293 294 295 296 297 297 297 297 297 297 297 298 300 300 303 302 299 301 304 304 308 309 312 315 316 316 317 314 314 313 312 309 305 302
290 290 289 290 290 291 293 294 295 295 296 296 296 296 297 297 298 300 301 299 300 301 302 301 304 306 309 310 314 315 315 315 315 313 310 306 303 299
286 286 287 287 287 288 289 290 291 293 295 296 296 296 297 297 298 299 300 299 298 299 301 303 304 304 304 310 310 314 314 314 314 311 306 303 298 296
284 284 285 285 286 286 286 287 287 289 291 293 295 296 296 297 297 298 299 296 297 296 297 298 302 301 302 305 308 311 312 314 312 307 303 298 295 295
284 284 285 285 286 286 287 287 287 287 286 287 289 292 295 296 296 297 299 297 297 295 295 292 294 301 298 299 305 308 309 310 305 302 298 297 296 296
283 284 285 285 286 286 287 288 288 288 288 287 287 288 290 293 295 295 297 297 294 293 294 289 290 289 295 294 294 299 310 306 301 298 298 297 295 297
284 284 285 285 286 286 286 286 287 288 289 288 288 289 289 289 290 291 295 294 290 289 291 287 285 285 287 291 291 291 293 297 298 296 295 293 296 290
285 285 285 285 285 285 286 286 287 287 287 288 289 288 289 288 289 289 291 296 292 289 289 286 285 285 285 286 288 289 290 290 292 292 291 291 290 285
285 286 287 287 287 286 286 286 287 287 287 288 288 290 290 290 290 291 292 293 292 294 289 288 283 284 284 285 286 286 287 286 287 287 287 285 283 282
285 284 285 286 285 285 284 284 286 287 287 288 289 290 290 290 291 292 293 292 294 294 292 289 285 285 283 284 284 285 285 285 285 284 284 283 282 282
285 285 284 284 284 284 284 284 284 286 287 287 289 290 290 291 291 291 292 292 292 292 291 288 289 286 287 285 283 283 283 283 284 283 283 282 282 282
285 284 284 285 286 286 288 288 285 287 287 288 289 290 291 291 291 290 289 289 288 286 287 286 286 286 286 284 283 282 282 282 281 281 281 281 280 280
283 285 286 286 286 287 289 288 287 287 287 288 289 290 291 291 291 288 286 287 284 285 284 284 285 285 284 282 282 281 281 280 281 280 279 279 279 280
286 285 285 285 285 286 288 288 288 288 288 288 288 290 289 289 287 287 286 287 284 284 284 283 282 281 281 281 281 280 280 280 280 279 279 279 279 278
285 284 284 284 284 283 284 285 287 288 288 289 289 289 289 287 286 286 287 285 285 283 283 283 282 283 284 283 280 281 281 281 280 279 279 279 279 278
284 283 283 283 282 283 283 283 284 284 285 286 287 288 287 287 287 286 286 285 285 283 283 283 283 284 285 282 280 277 280 280 279 278 279 279 279 278
284 283 283 282 282 282 281 282 282 283 284 284 284 284 285 286 286 286 285 285 284 283 283 283 282 284 281 279 278 276 275 278 278 279 279 279 278 277
283 283 283 283 282 281 281 281 281 282 283 283 283 283 283 284 284 283 283 282 282 282 279 278 279 279 280 280 278 276 275 275 276 278 277 277 278 278
280 281 281 281 282 282 281 280 280 281 281 282 282 281 280 280 281 282 281 278 278 278 278 278 279 280 279 278 277 276 274 273 274 274 274 275 274 273

GFSNE_925_thetae_006.txt.gz
Theta_e
295 295 295 296 297 298 297 297 298 298 299 300 300 299 299 300 304 303 305 304 304 311 313 315 316 319 321 320 319 318 317 316 315 315 314 312 313 311
294 294 295 295 296 296 296 297 298 299 299 298 299 299 299 298 299 303 304 306 305 306 306 309 312 316 319 321 320 318 317 316 315 314 313 312 312 312
292 293 293 293 293 294 295 295 296 296 297 298 298 298 299 298 297 299 301 303 303 308 308 309 307 310 314 318 319 319 318 317 315 314 312 312 311 313
291 292 292 292 293 293 294 294 295 295 296 296 297 298 298 297 296 296 298 302 302 300 301 301 303 306 309 311 318 319 319 318 316 314 312 311 312 313
290 290 290 291 291 292 292 293 293 294 295 296 296 296 297 297 297 296 296 297 300 302 301 298 297 305 306 308 307 317 319 318 317 314 315 313 313 312
290 290 290 290 290 290 290 290 291 291 292 293 295 295 296 296 296 296 295 295 299 300 299 299 298 300 303 305 305 305 316 318 318 314 312 314 314 312
287 287 287 286 286 287 287 288 288 289 290 291 293 294 295 295 295 296 296 296 298 299 298 297 297 300 301 303 304 303 308 316 317 315 313 314 313 311
285 285 285 285 285 285 285 286 286 287 287 288 290 292 293 294 295 296 296 296 296 297 297 295 296 298 301 303 302 302 303 311 316 316 314 313 313 311
284 284 284 284 284 285 285 286 286 286 286 286 286 287 289 290 292 295 295 294 296 297 296 294 295 295 298 299 303 303 303 307 313 314 313 313 311 307
284 284 284 284 284 284 285 286 286 287 287 287 286 286 287 287 288 290 293 292 295 296 294 293 291 290 292 295 300 301 302 306 310 311 313 312 306 302
285 285 285 285 285 285 286 286 286 286 286 288 288 288 287 287 287 288 289 290 292 291 292 292 288 288 288 291 294 298 301 302 305 303 308 307 302 298
285 286 285 286 286 285 286 286 286 286 287 286 287 287 288 289 288 289 289 289 290 290 290 290 286 287 285 287 290 293 296 297 296 301 305 302 297 293
285 285 285 285 285 285 286 286 286 286 286 286 287 287 287 288 289 288 288 289 290 291 291 291 286 286 285 286 286 288 291 292 292 291 292 295 294 293
285 285 285 285 285 285 285 285 285 286 286 287 287 287 288 288 288 289 289 289 290 290 292 290 288 288 285 285 285 286 287 288 289 287 286 287 287 287
283 284 284 285 284 284 284 285 285 284 284 286 287 288 288 287 289 290 291 291 292 292 292 290 291 288 288 285 285 285 285 285 286 286 285 285 284 283
284 285 285 285 285 286 287 287 286 286 284 285 287 287 288 289 290 291 290 290 290 288 289 288 288 288 287 285 285 284 284 284 285 284 284 283 283 282
285 284 284 285 284 284 285 288 286 286 285 287 287 287 288 287 290 290 289 288 287 286 285 286 286 286 286 285 284 283 283 283 283 283 282 281 282 282
284 284 283 283 284 284 284 288 287 287 287 287 287 288 289 290 289 287 288 288 286 285 284 284 284 283 283 282 283 282 282 282 282 281 281 281 280 282
283 282 282 282 282 282 283 285 286 288 288 288 288 288 288 287 287 287 287 286 285 284 284 283 283 283 283 282 281 281 281 281 280 280 280 280 280 280
284 283 282 282 282 281 282 283 284 285 285 286 289 288 287 286 286 287 285 285 284 284 283 283 283 284 283 281 280 279 281 280 280 280 280 280 280 280
282 282 282 282 281 281 282 282 283 283 284 284 285 286 287 287 286 286 286 284 283 283 283 283 284 285 282 281 278 275 278 280 280 279 279 279 277 276
279 280 281 281 282 281 280 280 281 282 282 282 282 282 284 284 284 284 283 283 283 281 279 280 281 281 280 279 276 274 274 277 279 278 279 279 278 277
276 277 278 279 280 280 281 280 280 280 280 281 281 280 280 279 280 280 279 279 279 279 279 280 281 280 279 277 276 275 274 274 274 276 275 275 277 277

GFSNE_925_thetae_009.txt.gz
Theta_e
293 293 294 294 294 294 295 295 295 296 296 296 296 296 296 296 299 299 298 302 301 303 305 305 304 309 312 315 316 319 318 318 316 315 315 314 314 315
292 293 293 293 293 294 294 295 295 295 295 295 296 297 298 298 299 298 298 297 297 299 301 302 302 306 307 310 312 314 319 318 318 316 315 315 315 316
291 291 291 292 292 292 293 293 293 293 293 294 294 294 295 296 297 297 298 297 298 297 299 302 303 304 304 306 307 309 313 320 318 317 316 315 314 316
290 290 290 290 290 290 291 291 291 292 292 292 293 293 294 295 296 297 297 297 296 296 298 302 300 300 299 298 299 303 306 310 318 318 317 316 315 315
289 289 289 290 289 289 289 290 290 291 291 292 292 293 293 294 295 296 296 297 296 296 296 300 298 298 298 299 296 302 301 307 312 318 318 316 315 314
288 287 287 287 287 287 287 287 288 288 289 289 290 290 291 292 294 295 295 296 296 295 295 295 297 298 298 297 298 297 303 304 308 311 318 317 315 314
286 286 286 286 286 286 286 286 286 286 287 287 288 288 289 290 292 294 294 295 295 295 296 296 298 298 297 296 297 297 300 302 305 307 310 317 316 314
284 284 284 284 284 285 285 285 285 285 285 285 286 287 287 289 291 291 291 292 288 295 295 296 297 298 297 296 295 298 299 300 303 305 307 310 316 314
283 283 284 284 284 284 284 284 284 285 285 285 285 285 286 286 287 289 289 291 292 293 295 293 296 296 296 296 295 297 299 299 302 303 304 306 314 315
284 284 284 284 284 284 284 284 284 284 285 285 286 286 286 286 286 286 287 289 290 291 292 292 294 294 295 295 295 296 298 299 302 303 302 304 308 314
285 285 285 285 285 285 285 285 285 284 285 285 286 286 287 287 286 286 286 287 288 289 292 292 291 291 292 294 293 294 296 299 301 302 302 304 306 312
284 284 284 284 285 285 286 286 286 285 285 286 286 286 287 287 287 287 287 287 287 288 290 291 289 289 287 289 290 291 294 296 299 301 302 304 305 306
283 284 284 284 284 285 285 285 285 285 286 285 285 286 286 286 287 287 288 288 288 288 289 290 287 286 287 286 288 289 290 293 297 300 300 303 301 303
284 284 284 284 284 284 285 285 285 285 285 286 286 286 286 286 286 287 287 287 287 288 288 290 290 287 286 285 285 286 288 290 292 294 296 294 295 293
284 284 284 284 284 284 285 285 285 285 285 285 285 286 286 286 287 287 288 288 288 288 288 290 290 290 287 286 285 285 286 286 287 290 290 290 289 288
283 284 283 282 283 283 284 284 286 286 285 285 284 285 286 287 287 287 287 288 288 288 289 289 290 289 286 287 287 285 285 285 284 284 284 283 284 283
283 282 282 281 281 282 283 284 287 285 286 285 284 285 286 287 287 288 288 288 287 286 285 286 286 287 287 287 285 285 284 284 284 283 284 282 283 285
283 282 280 281 281 281 282 284 286 287 286 285 285 286 287 287 287 287 288 288 287 285 285 284 285 284 284 284 284 283 284 283 283 283 282 281 281 281
281 282 281 280 281 281 281 282 283 284 287 287 287 287 287 288 287 287 287 286 285 285 284 283 284 284 281 279 281 282 283 282 282 281 282 282 281 280
281 280 281 280 280 280 280 281 282 283 284 285 287 287 287 287 287 286 286 285 284 283 282 282 283 284 281 281 279 280 282 281 281 280 280 281 281 281
277 279 279 279 280 280 279 280 280 281 282 282 283 285 286 286 286 286 285 284 284 283 282 282 283 284 283 281 279 277 281 281 281 281 279 279 278 277
275 275 275 276 277 279 280 279 279 279 280 280 281 282 282 284 284 284 283 283 282 281 280 281 283 282 281 280 275 274 274 276 278 279 279 279 278 278
273 273 274 274 276 277 277 279 279 279 279 279 279 279 280 280 280 280 280 279 279 279 280 280 279 280 278 276 275 274 273 274 274 275 274 275 278 278

GFSNE_925_thetae_015.txt.gz
Theta_e
293 293 292 292 292 291 291 292 292 292 291 291 292 292 292 292 293 293 292 292 293 294 294 296 298 299 299 301 302 305 306 312 315 317 318 318 317 316
292 291 291 290 290 290 290 291 291 291 291 291 291 291 291 292 293 293 293 294 293 293 294 294 295 302 298 301 302 304 299 302 311 312 313 319 317 316
290 289 288 288 288 289 289 289 290 290 290 290 290 290 290 290 290 290 291 293 294 294 295 295 295 297 296 297 302 299 299 298 298 305 313 315 318 317
288 288 288 288 288 288 288 288 288 289 288 288 289 289 289 289 290 291 291 291 291 292 293 294 295 295 296 296 299 298 298 297 297 296 303 312 313 316
288 287 287 287 287 286 286 287 287 287 287 288 288 288 288 288 288 289 289 289 289 289 289 290 293 294 295 296 299 298 295 294 296 296 295 297 308 312
286 286 285 285 284 284 285 285 285 285 285 285 286 286 286 287 287 287 287 288 289 289 289 290 290 292 295 297 298 297 295 294 297 295 295 295 297 305
284 283 283 283 284 284 284 285 285 285 285 285 285 285 285 285 285 286 287 287 288 289 289 290 291 293 294 294 296 296 295 296 296 295 295 295 296 297
283 283 283 283 283 283 284 284 284 284 285 285 285 285 285 285 285 285 285 286 286 287 288 290 292 293 294 294 295 296 295 296 296 295 295 295 296 296
283 283 283 283 283 283 283 283 283 284 284 284 285 284 284 284 284 284 285 285 286 287 288 288 288 290 290 294 295 295 295 295 296 296 296 296 295 295
282 282 283 283 283 283 283 283 283 283 283 283 284 284 284 284 284 284 284 285 285 285 286 287 287 288 289 291 292 294 295 295 295 295 295 295 295 295
282 282 282 282 283 283 283 283 283 283 284 284 284 284 284 284 284 284 285 285 285 284 285 285 286 286 287 288 289 293 293 294 294 295 294 294 294 295
282 282 282 282 283 283 284 284 284 284 284 284 284 285 285 285 285 285 285 285 285 284 285 285 286 287 288 288 288 292 293 293 294 294 293 293 294 294
282 282 283 283 283 284 284 283 284 285 284 284 284 285 285 285 285 285 285 286 285 285 286 286 286 286 287 288 290 291 292 291 291 292 292 291 292 293
283 283 282 282 282 282 282 282 283 283 284 284 285 285 285 285 284 284 284 285 285 286 286 286 286 287 287 287 287 289 290 290 290 289 289 290 291 292
283 283 282 280 281 281 281 281 282 283 283 284 284 285 285 285 285 285 285 285 285 286 286 286 286 287 287 287 287 288 287 288 288 288 287 288 288 289
282 281 281 280 279 280 281 281 282 283 284 284 284 285 285 284 285 285 285 285 285 285 286 286 286 286 286 286 287 286 287 287 287 287 286 286 286 287
281 280 279 278 278 279 279 280 280 281 283 284 284 284 284 284 285 285 285 285 286 286 286 286 286 286 286 286 285 285 287 286 286 285 285 284 283 284
279 278 277 276 277 278 278 278 279 280 281 283 285 284 284 283 283 284 285 285 286 286 286 286 286 285 284 284 286 287 285 284 283 283 283 283 282 282
277 276 275 274 275 276 277 277 278 278 279 281 283 284 284 285 285 285 285 286 286 286 285 285 285 285 285 285 282 283 283 282 282 282 282 283 280 281
274 275 274 274 274 274 275 276 277 277 278 278 280 281 283 284 283 284 284 284 284 283 283 284 284 284 285 284 281 280 282 283 282 281 280 281 280 280
272 273 273 273 273 273 274 276 277 277 277 277 278 279 281 282 282 282 283 283 283 282 282 281 282 283 283 281 278 277 280 281 282 281 280 280 279 279
271 271 271 272 273 273 274 275 276 276 276 277 277 278 278 279 280 281 281 281 280 281 279 279 280 281 280 279 275 274 275 277 279 279 279 280 280 279
270 271 271 272 273 273 274 275 275 276 275 277 277 277 278 278 278 279 279 279 279 279 279 279 278 278 276 276 275 274 274 275 276 278 279 279 280 281

GFSNE_925_thetae_018.txt.gz
Theta_e
292 292 292 292 291 291 291 292 292 291 290 290 290 290 291 291 291 291 292 293 293 293 293 292 293 294 295 299 300 301 302 302 305 311 315 320 319 318
292 292 291 290 289 288 288 289 290 291 290 289 289 290 289 290 290 290 290 290 289 289 290 292 293 294 294 302 298 301 302 302 301 301 313 315 319 318
290 289 288 288 288 288 288 288 289 289 289 289 288 288 289 289 289 288 289 289 291 292 292 292 292 293 294 295 297 298 302 299 299 298 299 309 315 319
288 288 287 287 287 287 287 287 288 288 288 288 288 288 288 288 288 289 289 289 289 289 288 288 289 290 291 293 295 296 298 299 297 297 296 299 312 315
287 287 287 286 286 285 285 285 285 285 286 286 286 286 286 287 287 287 287 287 287 287 287 287 288 288 289 290 293 295 296 300 296 295 295 296 296 307
286 285 284 284 283 283 283 283 283 284 284 284 285 285 285 285 286 286 286 286 287 287 287 288 288 287 288 290 291 294 296 300 295 294 293 295 295 296
284 284 283 283 283 284 284 284 284 284 284 284 285 285 285 285 285 285 285 285 286 286 286 287 288 288 288 289 291 293 295 300 296 294 296 295 294 294
283 283 282 282 282 283 283 284 284 284 284 284 284 284 284 284 285 284 284 284 285 284 285 286 287 288 288 291 292 293 294 296 297 295 295 295 295 296
282 282 282 282 282 282 282 282 282 282 283 283 284 284 284 284 284 284 284 284 284 284 285 286 287 287 287 287 289 292 294 296 297 296 295 295 295 295
282 282 282 282 282 282 282 282 283 283 283 283 283 283 283 283 284 284 284 284 284 284 285 285 285 285 285 286 286 289 291 294 295 295 295 295 295 295
281 281 281 282 282 282 283 283 283 283 283 284 284 284 284 283 284 284 284 284 285 284 284 284 284 285 285 285 286 286 289 290 293 294 294 295 294 295
281 281 282 282 283 283 283 284 284 284 284 284 284 284 284 284 284 284 285 285 285 284 284 284 284 285 285 287 287 287 287 288 291 292 293 293 294 293
282 282 282 283 282 282 282 282 282 282 282 283 284 284 284 284 284 284 285 285 285 285 285 285 285 285 285 286 286 287 289 290 291 291 291 291 291 291
281 282 283 282 281 281 281 281 281 282 282 283 284 284 284 284 284 284 284 284 284 285 285 285 285 285 285 286 286 287 287 288 289 290 290 290 290 289
282 281 281 280 280 280 280 280 281 281 282 283 283 284 284 285 285 284 284 284 284 284 285 285 286 285 286 286 286 287 288 287 288 288 288 288 289 289
280 280 279 278 278 278 279 279 279 279 281 282 283 283 284 284 284 284 284 284 284 284 285 285 285 285 285 284 285 286 286 286 287 287 287 287 287 287
279 278 277 276 276 276 277 277 278 278 279 281 283 284 283 283 284 284 284 284 284 285 285 285 285 285 285 286 285 285 285 284 285 286 286 286 285 285
277 276 275 274 274 275 275 277 277 277 277 279 281 283 284 284 283 283 283 284 285 285 285 285 286 286 285 284 285 286 285 284 285 285 284 283 283 283
275 275 274 273 273 273 274 274 276 277 277 277 278 280 282 283 284 284 284 285 285 285 286 286 286 286 285 284 282 284 284 283 283 283 282 282 282 281
273 273 272 272 272 272 272 272 275 276 276 276 277 278 281 282 282 282 283 283 283 283 283 283 284 284 286 285 282 281 282 283 282 281 280 280 280 280
271 272 271 271 271 272 273 274 274 275 275 275 276 277 278 280 281 281 282 282 283 282 281 280 281 283 283 281 280 277 279 281 282 281 280 279 279 279
270 270 271 271 271 272 272 273 274 274 274 275 275 276 277 278 278 279 279 279 279 279 278 279 280 281 280 279 276 275 276 278 279 279 280 280 279 280
269 270 270 271 272 272 273 273 273 273 274 274 275 276 277 277 277 278 278 278 278 278 278 278 277 277 276 276 276 275 276 277 277 278 278 278 280 280

GFSNE_925_thetae_021.txt.gz
Theta_e
292 292 291 292 292 292 292 292 292 294 294 292 291 291 291 291 291 291 291 291 291 292 292 292 291 290 292 294 295 300 301 302 303 304 304 314 312 315
293 293 293 293 292 292 291 291 291 290 291 290 290 290 290 290 289 290 290 291 290 289 288 288 290 293 293 293 294 300 299 302 303 302 302 303 309 316
292 291 291 290 290 289 289 289 289 289 291 289 289 289 289 289 289 289 290 290 290 289 288 291 292 292 291 292 293 295 297 299 302 300 299 301 303 311
289 289 288 288 288 288 288 288 288 288 288 289 288 288 288 288 288 288 289 288 289 289 289 288 287 287 288 288 290 292 295 296 298 299 298 297 299 301
287 287 287 287 286 286 286 286 286 286 286 286 287 287 287 287 287 287 288 288 288 288 288 287 286 286 287 287 287 288 291 294 296 299 298 296 296 296
286 285 285 285 285 284 284 284 284 285 285 285 286 286 286 286 286 287 287 287 288 288 287 287 287 288 288 288 287 288 289 290 294 296 299 296 294 295
285 285 284 284 284 283 284 284 285 285 285 285 285 285 286 286 286 286 286 287 287 287 287 287 288 288 289 289 288 288 289 290 292 295 299 297 294 294
283 283 283 283 283 283 283 283 283 284 284 285 285 285 285 285 285 286 286 286 288 287 287 287 287 288 288 289 289 289 290 291 292 294 300 295 295 295
283 283 283 283 283 283 283 282 282 283 283 283 284 284 284 285 285 285 285 286 286 286 286 286 286 286 288 288 288 288 288 290 293 294 297 298 295 295
282 282 282 283 282 282 283 283 283 284 284 284 284 284 284 284 284 285 285 285 285 285 285 286 286 286 287 287 287 286 286 287 291 294 296 297 296 295
282 282 282 282 282 283 283 284 284 284 284 284 283 284 284 284 284 284 285 285 287 286 285 285 285 286 286 286 287 286 286 286 289 291 294 295 295 295
282 282 283 282 282 283 283 283 283 283 283 283 283 283 284 284 284 285 285 286 286 286 285 286 285 286 287 288 288 288 288 286 288 289 290 293 294 294
282 282 283 283 282 282 281 282 282 282 282 283 283 284 285 285 285 285 285 285 286 286 285 285 285 286 286 287 288 288 288 287 288 289 290 291 292 293
282 282 283 281 280 280 280 280 280 281 283 284 284 285 285 285 285 285 285 285 285 285 285 285 286 286 286 287 287 288 287 287 288 289 289 289 290 290
281 281 280 279 278 279 279 279 280 281 282 283 285 285 285 285 285 285 285 285 285 285 285 285 285 286 286 287 287 287 288 287 287 288 287 287 288 288
279 280 278 277 277 278 279 279 280 280 280 282 284 284 285 285 285 286 286 286 286 286 285 285 285 285 287 286 287 287 287 288 287 286 286 287 287 287
278 278 277 277 277 278 278 278 279 280 280 281 282 284 285 285 285 285 285 286 286 286 286 285 285 285 285 286 287 287 287 287 286 287 286 287 288 287
277 276 276 276 276 277 277 277 278 279 279 279 281 282 284 285 285 285 284 285 286 286 286 287 286 286 286 286 286 287 287 287 286 286 285 287 288 287
275 275 275 274 275 276 276 276 276 277 278 278 279 280 282 284 285 285 285 286 286 286 287 287 287 287 288 288 285 284 286 287 286 285 285 285 287 286
273 274 273 273 273 274 274 275 275 276 277 277 278 278 279 282 283 284 285 285 286 286 285 285 286 287 288 288 287 282 282 284 285 286 284 283 282 281
272 272 272 272 272 272 273 273 274 275 276 277 277 277 278 280 281 281 282 283 284 285 284 284 282 282 283 283 283 281 279 281 282 283 283 284 284 283
270 271 270 271 271 271 272 272 274 275 275 276 276 277 277 278 279 280 280 282 282 282 281 281 281 282 282 283 282 280 279 278 279 280 280 281 283 285
269 269 269 269 270 270 271 271 272 273 273 274 275 276 276 277 278 279 280 280 281 281 281 281 280 279 280 281 281 280 279 279 280 280 279 279 280 280

GFSNE_925_thetae_024.txt.gz
Theta_e
295 294 294 293 293 292 292 293 294 295 297 296 296 296 295 294 294 294 293 293 292 292 291 290 291 291 291 290 292 294 295 300 302 304 304 306 304 304
295 294 294 294 293 293 293 292 292 292 294 292 292 292 292 292 292 291 291 291 291 291 291 290 289 288 288 289 291 292 294 297 299 300 304 302 303 302
293 292 292 292 291 291 291 291 291 291 292 291 291 291 291 291 291 291 291 291 292 291 291 290 289 288 290 292 292 292 292 294 296 298 302 301 300 301
291 290 290 289 289 290 290 290 290 290 290 291 290 290 291 291 291 291 291 291 291 290 290 290 289 289 290 289 288 289 290 291 293 295 297 300 299 298
289 289 289 289 289 289 288 288 288 288 288 289 289 289 289 289 289 289 289 290 290 290 289 289 289 289 289 288 286 286 287 288 290 292 295 297 299 298
288 288 288 288 287 287 287 287 287 287 287 288 288 288 288 289 289 289 290 290 290 290 290 289 289 289 289 289 289 289 288 288 288 289 292 294 297 299
286 286 286 286 285 285 285 285 286 287 287 287 287 287 287 288 288 288 288 288 289 289 289 289 289 290 290 290 289 288 288 287 287 287 289 291 294 298
286 286 285 285 285 285 284 284 283 284 285 285 286 286 287 287 287 287 288 288 290 288 288 289 288 289 289 290 290 290 290 290 291 290 288 290 292 296
285 285 285 285 284 284 284 284 283 283 283 284 284 285 285 286 286 286 287 287 288 287 287 289 288 288 288 288 288 288 289 289 289 289 290 290 292 296
284 284 284 284 284 283 283 284 284 284 285 285 285 285 285 285 285 286 286 287 287 287 287 288 288 288 288 288 287 288 288 288 288 287 289 292 293 297
283 283 283 284 284 284 284 284 284 285 285 284 284 284 284 284 284 285 287 287 288 287 287 287 288 287 287 287 288 287 288 287 286 286 288 291 293 297
282 283 283 283 283 283 283 284 284 284 284 284 284 285 284 284 284 285 285 287 287 288 287 287 288 287 288 288 288 288 289 288 286 286 287 289 292 294
282 283 283 284 282 281 281 282 282 282 282 283 284 286 286 286 286 286 286 286 287 287 287 287 288 287 287 288 289 290 290 290 290 289 286 288 289 291
281 283 283 282 280 280 280 281 280 280 283 284 286 287 287 287 287 287 287 287 287 287 287 286 287 287 288 288 289 288 289 289 289 289 290 290 289 290
281 281 280 279 279 280 280 279 280 282 283 284 285 286 287 286 286 286 287 287 287 287 287 287 287 287 287 288 288 289 289 290 288 289 289 289 289 289
280 281 279 279 280 280 281 281 282 282 282 283 284 285 286 287 286 287 287 287 287 287 287 285 285 286 287 287 288 288 289 290 288 288 289 289 289 290
278 280 279 279 280 280 280 280 281 281 282 282 283 284 286 287 287 286 286 287 288 287 288 287 285 285 285 286 288 288 288 288 289 289 288 289 289 289
278 278 278 278 279 279 279 279 280 280 280 281 282 283 284 286 286 287 286 286 287 288 288 288 288 286 286 286 286 287 289 289 289 288 288 288 289 290
277 277 277 276 277 278 278 278 279 279 279 280 281 281 282 283 285 286 287 288 288 287 288 289 289 288 289 290 286 286 287 288 289 288 287 287 288 289
275 275 275 275 275 276 277 277 277 278 278 279 280 280 281 282 283 284 284 285 287 287 288 287 287 288 289 290 290 283 282 284 287 288 287 287 286 286
274 274 274 274 275 275 275 276 277 277 278 278 279 279 280 281 282 282 283 284 284 286 286 285 284 283 284 285 286 284 281 282 284 286 286 286 287 287
273 273 273 273 274 274 275 275 276 277 277 277 278 279 279 280 281 281 282 283 283 284 284 283 283 283 284 285 286 283 282 281 281 282 283 282 283 288
271 272 272 272 272 273 273 274 275 275 276 276 277 278 279 280 280 281 281 282 282 283 283 284 283 283 283 283 284 283 282 282 283 283 280 280 281 281

GFSNE_925_thetae_027.txt.gz
Theta_e
297 296 295 295 294 294 294 294 294 296 296 297 297 298 299 298 297 297 296 296 295 294 292 292 291 291 291 291 290 291 295 297 297 298 303 306 306 307
295 296 296 295 295 295 294 293 293 294 294 293 294 294 294 294 294 294 294 294 293 292 292 292 291 291 291 290 289 289 289 291 294 295 299 300 304 305
293 294 293 293 292 292 292 293 293 293 294 293 292 292 292 293 293 293 293 293 293 293 292 292 291 291 290 289 288 288 290 291 291 292 294 298 298 303
292 292 291 290 290 290 290 291 291 291 292 293 292 292 292 292 292 292 292 292 292 292 292 292 291 291 290 289 289 290 291 291 291 291 291 292 295 297
290 290 290 290 290 290 290 290 290 290 290 290 291 290 290 290 291 291 291 291 291 291 291 291 290 290 290 289 289 289 289 288 287 287 288 289 292 294
288 289 289 289 289 289 289 289 289 288 288 289 290 290 290 290 290 291 291 291 291 291 291 291 291 291 290 289 289 289 289 288 287 286 287 287 289 292
287 287 288 288 287 286 286 286 286 287 287 288 289 290 289 289 289 289 290 290 290 290 290 290 291 291 291 291 290 290 289 289 289 288 287 287 287 289
286 287 287 287 287 286 286 285 285 285 285 285 286 287 287 288 288 288 289 289 291 290 289 290 289 290 290 290 290 290 290 290 290 290 289 289 288 287
286 286 286 287 286 286 286 285 285 284 284 284 284 285 286 286 286 287 287 288 289 289 289 290 289 290 290 289 289 289 288 288 288 289 289 289 289 290
285 285 285 285 285 284 284 285 285 285 286 285 285 285 286 286 287 287 287 287 288 288 288 289 289 289 289 289 289 288 288 287 287 288 288 289 289 288
283 284 284 284 284 284 284 285 284 285 285 285 285 285 285 284 284 285 286 286 288 288 288 288 289 289 289 289 289 288 288 287 287 287 287 287 288 288
282 282 283 283 283 284 284 284 284 284 285 284 284 284 285 285 286 285 285 286 286 287 287 288 289 289 290 289 289 289 289 288 288 287 287 287 286 287
282 282 283 284 282 281 281 282 282 283 282 283 283 284 286 287 287 287 286 286 286 287 287 287 288 289 289 289 289 290 289 290 289 290 290 288 286 287
281 282 283 281 281 280 280 281 281 281 282 283 285 286 287 288 288 288 288 288 287 287 287 288 288 288 289 290 289 289 289 289 290 290 289 290 288 286
280 281 280 281 280 280 281 280 280 282 284 284 285 285 286 287 287 287 287 287 287 287 287 287 287 288 288 289 289 289 290 290 290 290 289 289 289 289
279 279 281 280 280 281 282 282 282 283 283 284 285 285 286 287 288 288 287 288 288 288 288 287 287 286 287 287 288 288 288 289 290 289 288 288 290 290
277 280 280 280 280 281 281 282 282 282 283 283 284 285 285 286 288 288 287 287 287 288 289 288 287 286 286 286 287 288 288 289 289 290 289 289 289 290
278 279 279 278 278 279 280 280 281 281 281 282 282 283 284 284 285 286 288 288 288 288 288 289 288 287 286 286 285 287 288 288 289 289 289 289 289 290
278 278 278 277 277 278 279 279 279 280 280 280 281 282 282 283 284 285 285 286 288 289 289 289 289 289 290 290 287 286 287 288 289 289 289 288 288 289
276 276 276 276 277 277 277 277 278 279 279 280 281 281 281 282 284 284 284 285 285 286 288 289 287 286 287 287 288 283 284 284 286 287 289 288 287 287
275 275 275 275 275 276 276 277 277 278 278 279 280 280 281 282 282 283 283 284 285 285 286 285 284 283 284 286 287 285 282 282 283 285 287 288 288 287
274 274 274 274 275 275 275 275 276 277 277 277 278 279 280 281 282 282 283 283 284 284 285 285 285 284 285 286 286 284 284 282 281 282 283 284 283 286
273 273 274 274 274 274 274 274 275 275 275 276 276 278 279 280 281 281 282 282 283 283 283 284 285 284 284 284 285 284 283 283 284 282 280 281 281 281

GFSNE_925_thetae_030.txt.gz
Theta_e
296 295 295 295 295 294 293 293 293 294 293 294 295 295 295 296 297 298 298 297 297 296 296 295 293 292 291 291 291 292 294 294 297 299 299 300 303 306
295 294 294 294 294 294 294 294 293 293 293 293 293 292 292 293 294 294 294 296 296 295 294 293 293 293 293 292 292 290 289 291 294 296 296 296 298 301
293 293 293 293 292 292 292 292 293 293 293 293 293 292 292 292 293 292 293 293 293 293 293 293 293 292 292 291 291 291 290 289 291 293 293 292 294 297
291 290 290 290 290 290 290 291 291 291 291 291 291 291 291 291 291 291 292 292 293 293 294 293 293 293 292 292 291 290 290 289 288 290 291 290 290 292
288 288 289 289 289 289 289 290 290 290 290 290 289 289 289 289 290 290 290 291 291 291 291 291 291 291 291 291 291 290 290 289 289 289 288 288 288 288
286 286 287 288 288 289 288 288 287 286 286 287 287 288 289 289 290 290 290 291 291 291 291 291 291 291 291 291 290 290 290 289 289 289 288 287 287 286
285 285 286 287 287 288 287 287 286 286 286 286 286 286 287 288 288 289 289 288 289 289 290 290 290 290 290 291 291 291 290 290 290 289 289 289 288 288
284 284 286 287 287 287 287 286 286 286 285 285 285 284 285 285 286 287 288 288 287 288 289 289 289 289 289 289 290 290 291 290 290 289 290 290 289 289
284 284 285 285 285 285 285 284 285 285 285 285 284 284 284 284 285 286 286 286 287 287 288 288 288 289 289 289 289 289 290 289 289 289 288 289 290 290
282 282 282 283 284 284 284 285 284 285 285 285 285 285 284 285 285 286 287 287 286 287 287 287 288 288 288 288 289 289 289 289 289 288 287 287 287 288
281 282 282 282 282 283 284 284 284 284 284 284 284 285 285 285 285 285 285 285 284 285 285 287 287 288 288 288 288 288 288 288 288 287 287 287 287 287
281 281 281 282 283 282 282 282 282 282 283 283 283 283 283 283 284 284 285 285 285 285 285 286 286 287 288 288 288 289 289 289 288 288 288 287 287 287
280 280 281 282 282 282 281 281 281 281 281 281 282 282 283 284 286 286 287 286 286 285 285 286 286 287 287 288 288 289 289 289 289 289 289 289 289 288
279 279 281 280 281 281 281 281 281 281 281 281 282 284 285 286 287 287 288 287 287 287 286 287 287 287 287 288 288 289 289 289 289 289 290 290 289 289
278 279 279 280 280 280 281 282 282 282 282 283 284 285 285 285 286 287 288 287 288 288 287 287 287 287 287 287 288 288 288 288 288 289 289 289 289 289
277 278 279 280 279 279 280 281 281 282 282 283 283 283 284 285 286 287 288 287 287 287 288 287 287 287 286 286 287 287 287 288 288 288 289 289 288 288
277 279 279 278 278 278 279 279 280 280 280 281 282 283 283 284 284 285 286 288 287 288 288 288 288 287 287 287 286 287 287 288 288 288 289 288 289 289
278 278 278 277 277 277 278 278 278 279 280 280 281 281 282 282 283 284 285 286 286 288 288 288 288 288 286 286 286 286 286 287 288 288 288 288 289 289
277 277 276 276 277 277 277 277 278 278 279 279 280 280 281 281 283 284 283 284 285 285 286 288 287 286 288 288 287 285 285 286 287 288 288 289 289 288
276 276 276 275 276 276 276 276 277 278 278 278 279 279 280 281 283 283 283 284 285 285 286 285 284 283 284 284 285 284 284 284 285 285 286 287 288 287
275 275 275 275 275 275 275 275 276 276 277 276 277 277 279 281 281 282 282 283 284 284 285 285 285 284 284 285 286 284 283 282 282 283 284 287 286 286
273 274 274 274 274 273 274 274 274 275 275 275 275 276 277 279 280 281 281 282 282 282 283 284 284 285 284 284 285 284 283 282 282 282 282 283 283 283
273 272 273 273 272 272 273 273 273 272 272 272 273 274 276 278 279 280 280 280 281 280 280 281 284 284 284 284 284 283 283 283 283 281 280 281 281 282

GFSNE_925_thetae_033.txt.gz
Theta_e
295 294 294 294 293 293 293 293 292 292 291 292 292 293 292 293 293 295 295 296 295 296 296 296 295 295 294 293 291 292 293 294 294 295 297 299 300 302
295 294 294 293 293 292 292 292 293 293 292 292 292 292 293 292 292 292 293 293 293 295 295 295 295 294 294 294 293 292 292 292 293 292 294 296 297 298
292 291 290 289 289 289 290 290 290 291 292 292 292 291 291 291 292 292 292 292 292 293 295 294 293 293 293 292 292 292 291 291 290 290 292 294 294 294
289 288 287 287 287 288 288 289 289 289 289 288 288 289 289 289 289 289 289 290 292 292 292 293 293 293 293 293 293 292 292 291 290 290 289 290 291 292
287 286 286 285 285 286 287 288 288 288 288 286 286 286 287 287 288 289 289 289 289 289 290 290 291 291 291 291 291 291 291 291 291 290 289 289 289 289
285 285 284 284 285 286 287 287 287 287 287 286 286 286 286 286 287 287 288 289 288 289 289 290 290 290 291 291 291 291 291 290 290 290 289 289 289 289
283 283 284 284 286 286 286 286 287 286 286 285 285 285 284 284 284 285 285 286 287 287 287 287 288 288 288 289 290 291 291 290 290 290 290 290 290 290
281 282 282 283 284 284 284 284 284 285 285 284 284 284 284 284 284 285 285 285 285 286 287 288 288 288 289 289 289 289 290 290 290 291 290 290 290 290
282 281 281 281 282 282 283 283 283 284 284 284 284 284 284 284 284 284 284 284 285 285 286 286 287 287 287 287 287 288 289 289 289 290 289 289 289 289
282 281 281 281 282 282 282 283 283 283 283 284 284 285 285 285 285 284 285 285 286 285 285 285 285 286 287 286 286 287 287 287 288 288 288 288 288 288
281 280 280 280 281 282 282 281 281 281 282 284 284 284 283 284 285 285 285 285 284 284 284 284 285 286 286 287 287 287 287 288 288 288 288 288 288 287
280 279 280 280 281 281 281 282 281 281 281 281 281 281 282 282 282 283 284 284 284 285 285 284 284 284 286 286 286 286 287 288 288 288 288 288 288 288
279 279 279 279 280 280 281 281 281 281 281 281 281 281 281 283 284 285 286 285 285 285 286 285 285 285 286 287 287 286 286 288 288 288 288 289 289 289
278 278 278 278 280 280 280 281 282 282 282 281 281 282 282 284 285 285 286 287 287 286 287 286 285 286 286 286 286 287 287 288 288 289 289 289 289 290
277 278 278 279 279 279 279 280 281 282 282 282 283 283 283 284 285 286 286 288 287 287 288 287 286 286 287 286 286 287 287 288 288 288 288 289 289 289
278 278 278 277 277 278 278 278 279 279 280 280 281 282 282 282 283 284 285 285 287 286 287 288 288 287 286 286 285 285 286 286 287 287 287 287 288 288
278 277 277 276 277 277 277 277 278 278 279 279 280 281 281 282 282 283 283 284 285 285 287 288 288 288 287 287 286 285 286 286 287 287 288 287 287 287
276 276 276 276 276 276 276 276 277 278 278 278 279 280 280 281 282 283 283 283 284 285 286 287 287 287 287 287 287 286 286 286 286 287 288 288 287 288
275 275 275 275 275 275 275 275 276 277 276 277 277 278 279 280 282 282 282 283 283 284 286 285 283 284 282 282 285 284 284 284 285 286 287 287 286 287
274 274 274 274 274 274 274 274 274 275 275 275 276 276 277 279 280 281 282 282 283 283 284 284 284 284 282 280 284 284 283 283 283 284 285 285 286 287
273 273 274 273 273 273 273 273 273 273 273 273 274 275 276 278 278 280 280 281 281 281 281 281 284 284 284 285 283 283 282 282 282 282 283 284 285 285
273 272 272 272 272 272 272 272 271 270 271 271 272 274 275 275 276 278 279 279 280 280 279 281 283 284 284 284 283 283 283 282 281 281 281 282 282 283
273 272 271 271 271 271 271 271 271 269 269 270 271 273 274 274 275 276 277 278 278 278 278 279 281 283 284 283 284 283 283 283 282 281 280 280 281 282

GFSNE_925_thetae_036.txt.gz
Theta_e
294 294 294 294 293 293 293 293 293 292 291 291 292 291 291 291 292 293 292 292 294 294 295 295 294 295 295 294 293 293 293 293 293 292 292 296 299 299
293 293 293 290 289 289 288 289 290 292 292 291 291 291 290 290 290 291 292 292 292 293 292 294 294 295 294 294 295 294 293 292 293 293 293 292 296 297
289 288 287 288 287 286 287 287 287 289 289 289 289 289 289 288 289 289 289 289 292 291 291 292 293 294 294 293 293 292 292 292 291 291 291 290 294 295
287 286 286 286 285 285 285 285 287 287 288 287 287 287 286 287 287 287 288 289 289 290 291 292 291 292 293 293 293 292 292 292 292 291 291 290 290 292
285 285 284 284 284 284 284 285 286 287 287 286 286 285 286 286 285 285 287 288 289 289 290 290 290 291 292 292 291 292 292 292 292 291 291 290 290 289
284 283 282 283 283 284 285 286 286 286 286 285 285 285 285 285 285 284 284 284 286 287 288 288 288 288 289 290 291 291 291 291 291 291 291 290 290 289
283 282 281 281 282 283 284 284 284 284 284 284 284 284 284 284 284 284 284 284 284 285 285 286 287 287 288 288 288 288 290 291 290 290 290 290 290 290
283 282 282 281 281 281 282 283 282 283 284 284 284 284 284 283 283 284 284 283 281 284 285 286 285 285 286 286 288 288 289 289 289 290 290 290 290 290
283 282 282 281 280 280 281 281 282 282 283 283 284 284 283 284 284 284 283 283 283 284 285 285 286 286 286 286 286 286 287 287 288 289 288 289 289 289
281 280 280 279 280 280 281 282 282 281 282 282 283 283 284 284 284 284 284 284 284 284 285 284 284 284 284 284 285 286 286 286 287 287 287 288 289 289
279 279 279 279 279 280 281 280 281 281 281 281 281 282 283 284 284 284 284 285 285 284 284 284 284 284 284 284 284 285 286 287 287 287 287 287 288 288
278 278 278 278 279 280 280 281 281 281 281 281 281 281 281 281 281 282 282 282 283 283 284 283 284 284 284 285 285 285 285 285 286 287 287 287 288 288
277 277 277 278 279 280 280 280 281 282 282 282 282 281 281 282 283 283 284 284 284 284 284 285 285 284 284 284 285 286 286 287 286 286 288 288 288 288
277 277 278 279 279 279 279 280 280 281 281 282 281 281 282 283 284 284 285 285 285 286 285 286 285 285 285 285 285 286 286 287 287 288 288 288 289 289
278 278 278 277 277 277 278 278 279 279 280 280 281 281 282 282 283 284 285 285 287 287 286 287 286 286 286 285 286 285 285 286 287 288 288 288 288 288
277 277 276 276 276 276 276 277 277 278 279 279 280 280 281 281 282 283 283 285 285 285 287 287 287 286 285 285 285 285 284 284 286 286 287 287 287 286
276 275 275 275 275 276 275 276 276 277 277 278 278 279 280 281 281 283 283 283 284 284 286 286 288 287 287 286 286 286 285 285 285 285 286 286 286 286
275 275 274 274 275 275 275 275 275 276 276 276 277 277 278 279 281 282 282 283 283 284 284 284 284 286 286 286 285 285 285 285 285 285 286 286 287 287
273 274 274 274 274 274 273 274 274 274 274 274 275 275 276 278 279 281 281 282 282 283 284 284 283 283 278 278 284 284 283 283 283 285 286 286 286 286
273 273 273 273 272 273 272 272 272 271 272 273 274 274 275 276 277 279 279 280 280 280 281 282 283 283 282 279 283 284 283 282 282 282 283 284 285 285
273 272 272 272 272 271 271 271 271 269 270 271 272 273 274 274 276 277 278 278 279 278 279 280 282 283 284 284 281 283 282 282 281 281 281 281 282 284
273 272 271 271 271 270 271 270 270 269 269 270 272 272 273 274 274 275 276 276 277 277 277 279 282 283 284 283 282 282 282 282 281 281 281 281 281 281
274 273 272 271 271 270 270 269 269 268 268 269 271 272 272 272 273 274 275 275 275 276 277 278 281 282 282 282 283 282 282 282 281 281 280 280 281 281

GFSNE_925_thetae_039.txt.gz
Theta_e
293 293 293 293 293 291 290 291 291 290 290 290 291 291 290 290 289 289 290 292 292 292 293 294 296 297 299 299 299 299 299 298 296 294 294 294 296 297
292 291 290 288 287 287 287 288 286 287 287 289 289 289 289 289 289 289 288 289 289 292 291 292 292 295 295 295 294 295 296 296 295 292 291 291 291 293
288 287 286 286 286 286 286 285 284 285 286 286 287 288 288 288 288 287 287 287 288 290 291 290 290 292 292 293 293 292 292 293 294 294 293 291 291 295
286 286 286 285 284 284 283 284 284 285 285 285 286 287 287 286 286 286 285 286 288 289 289 290 291 291 291 292 293 293 294 292 292 292 291 291 290 292
285 284 283 282 282 282 283 284 284 285 285 285 285 285 285 285 285 285 285 285 284 286 288 288 288 291 292 292 292 292 292 292 293 292 291 291 290 290
283 283 282 281 281 282 282 283 283 284 284 284 284 284 284 285 285 284 284 284 283 284 284 286 287 287 288 289 291 291 291 291 291 292 291 291 291 290
283 283 282 282 282 282 281 281 282 283 283 283 283 283 283 284 284 284 283 283 283 284 284 284 285 286 287 288 288 289 290 290 291 291 291 291 290 290
283 283 282 282 281 281 280 281 281 282 282 282 282 283 283 283 283 283 283 283 281 284 284 285 285 285 285 285 286 287 288 288 289 290 290 290 290 290
282 281 280 280 279 279 279 280 280 281 282 282 282 282 283 283 283 283 283 283 282 284 284 284 284 285 285 285 285 286 286 287 288 288 289 289 289 289
279 279 278 278 278 279 279 280 280 280 280 281 281 281 282 283 283 283 283 283 282 283 283 284 284 284 284 284 284 284 284 285 286 286 287 288 288 288
278 277 278 277 278 279 279 280 280 281 281 281 281 281 281 282 282 284 283 283 283 283 284 284 284 283 284 285 285 285 285 284 285 286 287 287 287 287
277 277 277 278 279 280 280 280 280 280 281 281 281 281 281 281 281 281 282 282 282 282 283 283 283 283 283 285 285 285 284 285 286 286 286 286 286 287
277 277 278 278 279 279 279 279 280 280 280 281 281 282 282 281 282 282 281 281 281 282 283 284 284 284 284 284 285 285 285 285 285 286 286 287 288 288
277 277 278 278 278 278 278 278 278 279 279 280 281 281 282 282 283 283 284 284 284 284 285 284 284 284 284 284 284 285 286 286 286 286 286 287 288 288
277 277 277 276 276 276 277 277 277 278 278 279 279 280 281 281 282 283 284 285 285 285 285 285 285 285 285 285 285 285 285 285 286 287 287 287 287 288
275 275 275 275 275 275 275 276 276 277 277 277 278 279 280 281 281 282 283 284 285 285 285 286 286 285 286 285 285 285 285 284 285 285 285 286 286 287
275 274 274 274 274 274 274 274 275 275 275 275 276 276 277 279 280 282 282 283 284 284 285 285 286 286 286 286 286 286 285 285 285 285 285 285 285 286
273 274 273 273 273 273 273 273 273 273 273 274 274 275 275 277 279 280 281 282 282 283 284 283 283 285 286 285 285 285 285 284 284 284 284 284 285 285
272 272 273 272 272 272 272 272 271 270 271 273 273 274 275 276 277 278 279 280 280 281 281 283 282 283 277 276 283 283 283 283 282 283 284 284 285 285
273 272 272 272 271 271 271 271 270 269 270 272 272 273 274 274 275 276 277 278 278 278 279 280 281 281 282 280 282 283 282 281 280 280 281 282 283 284
273 272 271 271 271 270 271 270 269 268 269 271 272 272 273 273 274 275 275 276 276 277 277 278 280 281 283 282 280 282 282 281 280 280 280 279 280 283
274 273 272 271 271 270 270 269 269 268 268 270 271 271 272 272 273 273 274 274 274 275 276 278 281 282 283 283 282 282 281 281 281 280 280 280 280 278
274 273 273 271 271 270 270 270 269 268 268 269 270 271 271 271 272 273 273 273 274 275 276 277 279 281 281 281 281 282 282 281 281 281 281 280 280 281

GFSNE_925_thetae_042.txt.gz
Theta_e
292 292 292 292 292 291 289 287 288 288 287 287 287 288 288 289 288 289 289 289 289 289 290 291 291 295 296 300 301 303 304 303 301 300 301 301 301 306
290 289 288 287 286 287 287 287 286 287 287 286 286 286 286 287 288 288 288 288 288 288 289 291 291 290 294 295 297 298 297 298 298 296 295 296 296 296
288 287 286 286 286 285 284 284 283 283 284 284 284 285 285 286 288 287 287 287 286 287 288 289 289 291 290 293 293 294 294 295 295 295 295 295 295 296
286 285 285 284 283 282 282 281 282 283 283 284 284 285 285 286 287 286 286 286 285 285 287 288 289 291 291 290 292 292 292 292 294 294 293 294 294 295
284 284 283 283 282 281 281 281 281 282 283 284 284 284 284 285 285 285 285 285 285 284 284 286 287 288 291 291 290 292 292 292 293 292 292 292 291 292
284 283 283 282 282 282 282 282 281 281 281 282 282 283 283 283 284 284 284 285 284 283 283 284 284 286 287 290 290 292 291 292 292 292 292 291 291 291
283 283 283 282 282 282 282 281 280 280 281 281 282 282 282 283 283 283 283 283 283 283 283 284 284 284 286 287 288 290 291 291 291 291 291 291 291 291
283 282 281 280 280 280 280 280 280 280 281 281 281 282 282 282 282 282 282 282 283 283 283 284 285 285 286 286 286 287 288 289 290 290 291 291 291 291
279 278 278 279 278 278 278 279 279 280 280 281 282 281 282 282 282 282 282 282 282 283 283 283 283 284 284 285 285 285 286 287 288 289 290 290 290 290
277 277 278 277 277 278 279 279 280 280 280 280 280 281 281 281 281 281 282 282 283 282 282 283 283 283 284 284 284 284 284 285 286 287 288 289 289 289
277 277 277 277 278 279 280 279 279 279 280 281 281 282 282 282 282 282 282 283 282 282 283 283 283 283 283 284 285 285 285 284 284 285 286 286 287 288
277 277 277 278 278 279 279 279 279 280 279 280 281 281 281 281 281 281 281 282 282 282 282 282 283 283 283 285 285 285 285 284 284 284 285 286 286 287
277 277 277 277 278 278 278 277 278 278 278 279 280 281 282 282 282 282 281 281 281 281 282 283 283 283 284 284 285 285 285 285 284 285 285 286 286 286
277 276 276 277 277 277 277 277 277 277 277 278 278 279 280 281 281 282 283 282 282 282 282 283 283 284 284 283 284 285 285 285 285 285 285 286 286 287
276 275 275 275 275 275 275 276 276 276 276 277 277 278 278 280 281 282 283 284 284 284 284 283 284 284 284 285 285 285 285 284 285 286 286 287 287 287
275 274 274 274 274 274 274 274 274 274 274 275 275 276 277 279 280 281 282 283 284 285 285 285 285 285 285 285 285 285 285 285 285 285 285 285 286 286
274 273 273 273 273 273 273 273 273 271 272 273 274 275 275 277 279 280 281 282 282 283 283 283 285 285 285 285 285 285 285 285 285 285 284 284 285 285
273 272 273 272 272 272 272 272 271 270 271 272 273 273 274 275 277 278 279 280 280 281 282 283 283 285 285 284 284 285 285 285 283 283 283 283 284 284
273 272 272 272 271 271 271 271 270 269 270 271 272 273 273 275 276 276 277 277 278 279 279 281 282 281 280 281 281 283 283 283 282 282 282 283 284 284
274 273 272 271 271 270 271 270 270 268 269 271 271 272 273 273 274 274 275 275 276 277 278 279 280 280 281 281 282 282 281 280 279 279 279 280 281 282
275 273 273 271 271 270 270 269 269 268 268 270 271 271 271 272 272 273 274 274 274 274 275 277 279 280 281 280 280 281 281 280 279 279 279 279 280 281
276 274 273 272 271 270 270 270 269 268 268 269 270 271 270 271 271 272 273 273 273 273 274 277 279 280 281 281 281 280 280 280 281 280 280 279 280 280
276 275 274 273 272 271 270 270 270 268 268 268 270 270 270 270 271 272 272 272 272 273 274 275 277 279 280 280 280 280 281 279 280 281 281 280 280 280

GFSNE_925_thetae_045.txt.gz
Theta_e
293 292 292 292 291 290 290 289 289 291 291 290 289 289 288 288 288 289 289 289 288 288 288 288 289 290 290 291 297 299 301 308 307 306 307 309 310 311
291 289 289 288 288 288 287 287 287 287 290 287 287 286 286 286 286 286 287 289 288 287 287 287 288 289 289 290 292 297 298 299 304 305 305 305 306 307
288 288 287 287 286 286 285 285 284 284 286 285 285 285 286 286 286 286 287 288 288 287 286 287 288 288 289 290 290 293 296 295 296 297 297 298 299 300
287 287 286 285 285 284 284 283 283 283 283 284 284 284 285 285 285 286 286 287 287 286 285 285 286 288 289 291 291 291 293 294 293 294 295 295 295 296
286 285 285 284 284 284 283 283 283 283 283 283 283 283 283 283 284 285 285 286 286 286 285 285 284 284 287 289 291 291 293 292 292 293 293 293 294 294
285 285 284 284 284 283 283 283 283 282 282 282 282 282 282 283 283 283 284 285 286 286 285 284 284 284 284 286 288 291 291 291 292 292 293 292 292 293
284 284 283 282 281 281 281 281 281 281 281 281 281 281 282 282 282 283 283 283 284 285 285 285 285 285 286 285 287 289 291 292 291 292 293 292 292 292
282 281 280 279 280 279 279 279 279 280 280 281 281 282 282 282 282 282 283 283 284 284 285 285 285 285 286 286 287 287 288 291 292 291 291 291 291 291
280 279 279 279 279 279 279 279 280 280 280 281 282 282 281 281 282 282 283 283 283 283 284 284 284 285 285 285 285 286 286 287 289 291 291 291 292 291
279 279 279 279 279 278 280 281 280 280 280 281 281 282 282 282 282 282 282 282 283 283 283 283 284 285 286 286 285 285 285 286 286 288 289 290 291 291
279 279 278 278 278 278 279 279 279 279 280 280 280 281 281 282 282 283 283 283 283 284 284 283 283 285 285 285 286 284 284 284 285 286 286 288 289 290
279 279 278 278 278 278 279 279 278 279 279 279 280 281 281 282 282 282 282 283 282 284 284 283 284 284 286 286 286 286 286 285 285 284 285 286 287 288
279 278 278 277 277 277 277 278 278 277 278 279 279 280 281 282 282 282 282 282 282 283 283 283 284 285 285 287 286 286 286 286 286 286 285 285 285 286
278 278 277 276 276 276 276 276 276 276 277 278 278 279 280 280 281 282 282 283 282 283 283 282 284 284 286 286 287 286 286 286 286 286 286 287 285 286
277 276 275 274 274 275 275 275 275 276 276 277 277 278 278 279 280 282 283 283 284 283 283 283 283 284 285 286 286 286 286 286 286 286 286 287 287 287
276 275 274 274 274 274 274 274 274 273 274 275 276 277 278 279 280 281 283 283 284 285 284 284 284 284 286 286 286 287 286 286 286 286 285 286 286 286
275 275 274 274 274 274 274 274 273 272 273 274 275 276 277 278 279 280 281 282 284 284 285 284 284 285 285 286 287 287 287 287 286 286 285 286 286 287
276 275 274 273 273 273 273 273 273 271 271 273 274 275 275 277 278 279 280 281 282 282 283 284 284 286 285 284 284 286 286 286 285 284 284 284 285 286
276 275 274 273 273 273 272 273 272 271 270 272 272 273 273 275 277 278 278 279 280 281 281 282 283 284 285 286 283 283 285 284 282 283 283 284 285 285
276 276 275 274 273 272 272 272 271 270 270 270 271 272 272 274 275 276 277 277 278 279 280 280 281 282 283 283 283 283 282 282 282 282 282 282 282 282
278 276 275 274 273 272 271 271 270 270 269 269 271 271 271 272 274 274 275 275 275 277 278 280 280 279 279 280 282 283 281 281 280 281 281 282 283 284
278 277 276 274 273 272 272 271 271 271 270 269 270 270 270 271 272 273 274 274 275 276 277 278 279 280 281 282 284 283 282 280 279 280 280 280 282 284
278 277 276 275 274 272 271 271 271 270 269 268 269 270 270 270 271 272 272 273 273 274 275 277 278 279 281 281 282 283 281 281 281 282 281 280 280 280

GFSNE_925_thetae_051.txt.gz
Theta_e
297 297 295 295 293 292 292 291 292 293 292 291 291 290 290 289 289 289 289 289 289 288 288 287 288 289 289 289 289 290 292 292 294 295 299 299 302 310
296 295 294 293 292 291 291 290 290 290 292 289 289 289 289 288 288 288 288 288 288 289 289 289 288 289 289 288 288 288 291 292 293 293 297 297 301 309
294 294 293 292 291 290 290 290 289 289 290 289 288 288 288 288 288 287 287 287 288 287 287 288 289 289 287 286 286 285 287 289 291 292 294 296 298 307
293 293 292 291 290 290 289 289 289 288 288 289 288 287 287 286 286 286 286 286 287 287 286 287 288 287 287 286 286 285 285 287 290 291 292 296 295 297
292 291 290 290 289 288 288 288 287 286 286 287 287 286 286 285 285 285 285 286 286 286 286 286 287 287 287 286 286 285 285 286 288 291 292 294 294 295
291 290 289 288 287 286 285 284 284 284 285 285 285 285 284 284 284 285 285 285 286 286 286 286 287 287 287 286 286 285 285 285 287 291 292 292 293 292
289 288 287 286 284 283 282 282 283 282 283 283 283 283 283 284 285 285 285 285 285 285 285 285 286 287 287 288 288 287 287 285 287 290 291 292 292 292
287 287 286 285 284 283 283 282 281 281 281 282 283 283 284 283 284 285 285 285 286 285 285 286 286 286 287 288 288 288 288 287 288 289 291 291 291 292
287 286 285 285 284 283 282 281 281 281 282 282 282 283 283 284 283 283 283 284 284 285 285 286 285 286 286 287 287 287 286 287 287 289 291 291 291 291
286 285 285 284 283 281 280 280 280 281 281 282 281 282 282 281 281 281 282 283 284 284 284 286 285 285 286 286 286 287 287 286 286 287 289 291 291 291
285 285 284 283 282 280 278 279 280 280 281 281 280 280 280 281 281 282 283 284 286 285 285 285 286 286 286 286 286 287 287 287 285 286 286 288 291 290
284 284 283 282 280 278 278 278 279 280 279 279 279 280 281 282 282 283 284 285 285 286 285 286 286 286 287 287 287 287 288 287 286 284 285 286 287 290
283 283 283 281 279 277 277 278 279 277 277 279 280 280 281 282 282 282 283 283 284 285 285 285 285 286 286 287 288 289 289 289 287 285 284 285 286 287
282 283 283 280 278 277 277 278 277 277 279 279 279 280 280 281 281 282 282 283 284 285 285 285 286 285 286 287 288 289 289 289 289 289 289 287 285 285
282 281 280 279 278 278 279 277 277 279 278 278 279 279 280 280 281 282 283 284 284 285 286 285 285 286 286 286 288 289 289 289 288 288 287 288 289 287
282 283 280 280 280 279 279 280 279 279 277 278 278 279 279 280 281 281 282 283 284 287 285 285 285 285 286 286 287 288 289 289 288 288 287 288 288 289
281 281 281 282 281 281 280 280 279 279 278 277 277 278 278 279 280 280 282 282 284 285 286 286 286 285 285 286 286 287 289 289 288 287 287 288 288 289
281 281 282 283 282 281 280 280 279 279 278 276 277 277 278 278 278 280 281 281 282 283 284 285 285 286 286 285 284 287 289 289 288 287 287 288 289 288
280 281 282 282 282 281 281 280 279 278 277 277 276 277 277 277 278 279 280 280 280 281 282 284 285 285 287 289 285 284 287 286 287 286 285 286 287 287
281 282 282 282 282 281 280 280 279 278 278 277 276 277 276 276 277 278 279 279 279 280 281 283 284 283 283 284 285 284 283 284 285 285 285 284 285 285
283 283 283 282 282 281 280 280 278 278 277 276 277 277 276 276 276 277 277 278 278 279 281 281 281 281 282 283 284 284 282 282 283 283 283 285 287 286
283 283 283 282 282 281 280 280 279 278 278 277 277 276 277 276 276 276 277 277 278 278 279 280 282 283 283 284 286 284 283 282 281 281 281 282 282 287
284 283 283 283 282 281 280 279 279 278 278 277 276 276 276 275 276 276 276 276 277 277 277 279 281 283 284 283 284 285 283 283 283 283 281 281 281 281

GFSNE_925_thetae_054.txt.gz
Theta_e
297 297 297 296 295 294 293 292 292 290 290 290 291 290 290 289 289 288 288 289 288 288 288 288 289 289 289 290 290 290 289 289 291 292 293 294 295 300
296 296 295 295 293 292 291 291 291 291 290 290 289 289 289 288 288 288 287 287 287 287 287 287 287 288 288 289 290 289 288 288 288 290 292 293 294 299
294 294 294 293 292 291 291 290 290 290 289 289 289 288 288 288 287 286 286 286 286 286 287 286 287 287 287 288 289 287 287 287 287 288 290 292 293 297
293 293 292 292 291 290 290 289 288 286 286 286 286 286 287 286 286 285 285 285 285 285 286 286 286 286 286 287 287 287 287 286 285 285 287 290 292 293
292 292 291 290 290 288 287 285 284 284 284 284 284 284 285 284 284 284 284 285 285 285 286 286 286 286 287 287 288 287 286 286 285 285 285 289 291 292
291 291 290 289 287 286 284 283 283 283 283 283 282 283 283 283 283 284 285 285 285 285 285 285 285 285 286 286 287 287 286 286 286 285 285 289 291 292
290 289 288 286 286 285 283 283 283 282 282 281 282 282 283 283 283 284 284 284 284 284 285 285 285 286 286 286 287 288 288 288 287 287 285 289 291 292
288 287 287 286 285 284 283 282 281 281 281 281 282 282 283 282 283 284 283 283 283 283 284 284 284 285 285 285 286 287 287 287 288 287 287 289 291 291
287 287 286 286 285 284 283 282 280 280 281 281 281 282 283 282 282 281 281 281 282 282 283 284 284 285 285 285 285 286 286 287 287 287 287 290 291 291
287 286 285 285 284 283 281 280 278 279 280 280 281 281 280 280 280 281 281 282 282 283 284 285 285 285 285 285 285 285 286 286 286 286 286 288 290 291
285 284 285 284 283 282 281 278 278 278 279 280 278 279 280 281 281 281 282 282 283 284 284 285 285 286 286 286 285 285 286 286 287 287 285 286 289 291
284 284 284 283 282 281 279 277 277 278 279 277 278 279 280 280 281 282 282 283 283 283 284 284 285 286 286 287 287 286 287 287 287 287 285 286 287 290
284 283 283 282 281 280 278 277 278 278 277 278 279 279 280 280 281 281 281 282 282 282 283 284 285 286 286 286 286 286 288 287 288 287 286 284 286 287
282 282 283 283 281 279 278 278 278 278 278 279 278 279 279 280 280 280 281 282 283 284 284 285 286 285 286 286 286 287 288 288 289 288 287 284 284 286
282 282 282 281 281 280 280 279 279 279 279 278 278 278 279 279 279 280 281 281 282 283 286 286 285 285 285 286 286 287 288 289 288 289 289 289 288 285
282 282 282 281 281 281 281 281 280 280 279 278 278 277 278 278 279 279 280 281 282 283 284 285 285 285 285 285 286 286 286 288 288 288 287 287 287 289
283 282 281 281 283 282 281 281 280 280 279 278 277 277 277 278 278 278 279 281 281 282 283 284 285 285 285 285 285 286 286 288 288 288 286 286 288 288
281 281 281 281 283 283 281 281 280 280 279 278 277 277 277 277 277 278 279 280 281 281 281 282 284 285 285 284 284 286 287 288 287 287 287 288 288 288
282 281 280 281 283 283 282 281 280 279 278 278 277 277 277 276 276 277 278 279 279 280 280 281 283 283 284 285 284 283 285 286 285 285 285 286 287 286
282 282 281 282 282 282 282 281 280 279 278 278 277 277 277 276 276 277 277 278 278 278 280 281 281 281 281 282 282 283 283 284 285 285 285 285 285 285
283 283 282 282 283 283 282 281 280 279 278 277 277 277 277 277 276 276 276 277 277 278 278 280 280 281 282 282 283 284 282 282 283 284 284 284 286 285
283 283 283 283 283 283 282 281 280 279 278 278 278 277 277 276 276 276 276 276 277 277 277 277 280 282 283 283 284 283 282 281 281 281 282 282 282 283
284 284 284 284 283 283 282 281 280 279 279 278 277 276 276 275 276 276 277 276 276 276 275 276 279 281 283 283 284 283 282 282 282 281 281 281 281 281

GFSNE_925_thetae_057.txt.gz
Theta_e
296 296 297 296 296 295 294 292 291 287 289 290 289 289 289 289 288 288 288 288 287 287 287 286 287 288 288 289 289 289 290 291 290 290 290 291 292 293
295 294 294 294 294 293 292 291 290 290 289 289 288 287 286 286 286 287 287 286 286 285 285 286 286 287 287 288 287 288 289 290 290 289 289 289 290 292
293 293 293 293 292 291 290 290 288 285 285 285 285 285 284 285 285 285 285 284 284 284 285 285 285 286 286 286 286 287 288 289 289 289 289 288 289 290
291 292 292 291 291 290 289 287 286 284 284 283 283 283 283 283 283 283 283 283 284 284 285 285 285 286 286 286 286 287 287 287 287 287 287 287 287 288
291 291 291 290 290 288 286 285 284 283 283 282 282 282 281 282 282 282 283 283 283 284 285 285 284 284 284 286 285 286 286 287 287 287 286 286 285 286
291 291 290 289 286 286 285 284 283 282 282 282 281 280 281 281 282 283 282 283 283 283 282 283 283 284 285 284 285 286 286 286 287 287 287 287 286 285
290 289 288 286 286 285 284 284 283 282 281 281 280 281 281 281 282 281 283 282 281 281 281 282 284 283 283 283 284 285 286 287 287 288 288 288 286 287
288 287 287 286 285 284 284 283 282 281 280 280 280 280 280 281 282 281 280 280 280 280 281 281 281 282 283 284 284 284 285 286 287 287 288 287 287 288
287 287 286 285 285 284 283 283 282 281 278 279 280 280 281 280 280 280 280 280 280 281 281 281 282 283 285 285 284 285 285 285 286 286 286 286 287 289
286 286 285 285 284 284 283 282 281 279 277 279 280 279 278 279 280 280 281 281 281 281 282 283 283 285 284 285 285 285 285 285 285 286 286 286 286 288
285 285 284 284 283 282 282 281 280 277 278 279 278 279 279 280 280 281 281 282 282 282 281 282 284 283 284 285 286 286 286 286 286 286 286 286 285 288
284 284 284 283 283 282 282 280 278 277 278 278 279 278 278 279 280 280 280 281 281 281 281 282 282 283 285 285 286 286 286 286 287 286 287 287 285 287
283 284 284 283 282 282 280 279 278 278 278 278 279 278 278 278 278 279 279 280 281 282 282 283 283 284 285 285 285 285 286 286 287 287 287 287 285 285
284 283 282 282 282 282 280 280 279 279 279 279 279 278 278 277 278 278 279 279 280 281 282 283 284 285 285 285 285 285 286 287 288 288 288 287 286 285
284 283 282 282 281 281 281 281 280 279 279 279 279 278 277 277 278 278 278 279 280 281 282 283 285 285 285 285 285 285 286 286 288 288 288 287 284 284
285 283 282 282 282 281 282 281 281 280 280 279 278 277 277 277 277 277 277 279 280 280 280 281 282 284 285 285 285 285 285 286 287 288 287 287 288 288
284 283 282 282 281 281 282 282 281 280 280 279 278 277 277 277 276 276 277 279 279 280 280 280 283 284 285 284 284 284 285 285 287 287 286 286 286 287
283 282 281 281 281 281 281 282 281 281 280 279 278 278 277 277 276 276 277 278 278 278 278 279 281 281 283 283 283 285 285 286 287 286 287 287 287 287
283 282 282 281 281 280 282 282 281 281 279 278 278 278 276 277 276 276 276 276 277 277 278 280 281 281 281 279 283 283 284 285 285 285 285 286 285 286
283 282 282 282 281 281 281 282 281 280 279 278 277 277 277 277 277 276 276 276 276 277 277 278 279 279 281 280 282 282 282 284 285 284 284 284 284 285
282 282 282 282 282 282 282 282 282 281 280 279 278 277 277 276 276 276 276 276 276 276 276 276 277 280 281 283 282 282 282 282 282 283 283 284 285 284
283 282 282 282 283 283 283 283 282 281 280 279 278 278 277 276 276 276 276 276 276 276 275 275 279 280 282 283 283 282 281 281 281 281 281 283 283 281
284 283 283 283 283 283 283 283 282 281 280 279 278 278 277 276 275 276 276 276 275 275 274 274 277 279 281 281 283 283 282 281 281 280 280 280 281 282

GFSNE_925_thetae_060.txt.gz
Theta_e
296 296 296 296 295 294 295 294 291 287 287 289 288 287 287 287 286 286 286 287 287 286 286 285 286 286 287 288 288 288 288 288 288 289 291 291 291 291
294 294 293 293 293 293 291 290 290 289 288 287 285 284 284 283 283 284 284 284 284 284 284 284 285 286 286 286 286 287 287 287 288 289 290 291 291 290
291 292 292 293 292 291 291 290 289 286 284 284 283 283 282 282 281 281 282 282 282 283 284 284 285 285 286 286 286 287 287 287 287 288 290 290 290 290
290 291 291 291 291 290 289 287 285 284 283 282 282 282 282 281 280 281 281 282 282 282 284 285 285 284 284 284 284 285 285 286 286 288 288 288 289 289
290 290 291 291 290 289 287 285 284 283 283 282 282 281 280 280 280 281 281 281 282 283 282 283 282 282 283 285 285 285 284 285 285 286 286 287 287 287
291 291 290 290 288 286 285 284 283 283 283 282 280 280 280 280 280 281 281 281 281 280 280 280 281 282 283 284 282 283 283 285 285 285 286 287 287 287
290 289 288 287 286 286 285 284 283 283 281 280 279 279 280 280 280 281 280 280 279 279 280 280 281 281 282 283 284 284 284 284 285 285 287 287 287 288
290 289 287 286 286 285 284 283 283 281 280 279 278 279 279 280 280 279 279 279 280 280 280 280 281 282 283 284 284 284 284 284 285 285 286 287 288 288
288 286 286 285 285 284 283 283 282 281 280 277 278 279 279 278 278 278 279 279 280 280 280 281 281 282 282 283 283 284 285 285 285 285 285 286 286 286
286 286 285 285 284 284 283 282 282 282 279 277 279 279 278 279 279 280 280 281 281 281 281 281 281 281 283 283 284 285 286 285 285 285 285 285 286 286
285 285 285 284 284 283 282 282 282 281 278 278 278 278 278 278 279 279 279 280 280 280 281 281 281 282 282 283 284 285 285 286 285 285 285 285 285 286
286 285 284 283 283 282 282 282 280 279 278 278 278 279 278 278 277 278 278 279 280 280 281 281 281 282 283 283 285 285 285 285 285 285 286 286 286 286
286 285 284 283 283 282 282 281 280 279 279 279 278 279 279 278 277 278 278 278 279 279 280 280 281 282 283 283 284 284 285 285 285 287 286 286 287 286
286 286 285 283 282 282 282 281 280 280 280 279 279 279 279 277 277 277 277 277 278 279 280 281 282 283 285 284 284 285 285 285 286 287 287 287 287 286
287 286 285 284 282 282 282 281 281 281 281 280 279 279 278 277 277 276 276 278 279 279 279 280 280 282 283 284 284 284 284 285 286 287 288 287 287 286
286 286 285 284 282 282 282 281 281 281 281 280 279 279 277 277 277 276 276 277 278 278 278 279 281 281 283 284 283 284 284 284 285 286 288 288 288 286
284 283 283 283 282 282 282 281 281 282 281 280 279 278 278 277 276 276 276 277 277 277 278 279 281 281 283 283 283 284 285 285 285 287 286 286 286 287
283 283 283 282 282 282 281 280 280 282 281 280 279 278 278 276 277 276 276 276 276 277 277 278 279 280 281 283 283 283 284 285 285 286 287 286 285 286
284 283 281 282 282 282 281 280 280 282 281 280 279 278 277 276 277 276 276 276 276 276 277 277 277 279 280 274 281 282 283 284 284 285 286 285 285 285
284 283 282 281 282 282 281 281 281 281 282 280 279 278 277 276 276 276 275 276 275 276 276 276 276 276 278 280 281 282 282 283 284 284 284 284 284 285
284 283 283 282 282 282 282 282 282 281 282 280 279 278 277 277 276 276 275 276 276 276 275 275 276 279 280 280 280 282 281 281 281 282 283 284 284 284
284 284 284 283 282 282 282 282 282 282 282 280 280 278 278 277 276 276 276 276 276 275 274 274 278 279 281 282 283 282 281 280 280 281 282 282 282 282
284 285 284 283 283 283 283 282 282 283 282 281 280 278 278 277 276 275 275 276 275 274 274 274 276 278 279 281 281 282 281 281 280 280 280 280 281 282

GFSNE_925_thetae_063.txt.gz
Theta_e
294 293 293 294 295 295 294 294 293 292 286 288 288 288 287 286 285 284 284 284 284 285 285 286 286 286 286 286 287 287 287 288 289 289 289 289 290 291
293 292 291 292 293 292 292 291 290 289 289 288 287 285 283 283 282 282 281 281 282 282 283 284 284 285 285 286 286 286 287 287 288 288 288 289 289 290
292 291 290 291 292 291 291 291 290 289 286 285 284 283 283 282 281 280 280 280 281 281 283 283 284 285 286 286 286 286 286 286 287 287 288 288 289 290
292 291 290 291 291 291 290 289 287 285 283 282 282 282 282 281 279 280 280 280 281 281 282 283 283 283 284 284 284 284 285 286 286 286 287 287 288 289
292 291 290 290 290 290 289 287 285 284 283 282 282 281 280 279 279 280 280 281 281 281 280 281 281 281 282 283 283 284 285 285 284 284 285 285 286 287
292 291 291 290 289 289 288 285 284 283 283 282 281 280 279 278 279 279 280 280 279 279 279 280 280 281 281 282 282 283 283 284 284 284 285 285 285 285
291 290 290 289 289 286 286 285 284 283 282 281 280 279 278 279 279 279 279 278 279 279 279 280 280 281 282 282 282 283 283 284 285 285 284 284 285 286
290 290 289 288 287 287 286 284 284 283 281 280 279 278 278 278 279 278 278 278 279 280 280 280 280 280 280 281 282 282 283 284 285 285 285 285 285 286
290 289 288 286 285 285 284 284 283 282 281 280 278 277 278 279 278 278 278 279 280 280 280 280 280 280 281 282 282 282 283 285 285 285 285 284 284 285
288 287 286 285 285 285 284 282 282 281 281 280 277 278 278 279 279 279 279 279 279 279 279 279 280 280 281 282 283 283 284 285 285 285 285 285 285 284
288 286 285 285 285 284 283 282 281 282 281 278 278 279 279 279 278 278 277 278 278 278 279 279 280 280 281 282 283 283 284 284 285 285 285 285 285 285
287 285 285 285 284 283 282 282 281 282 280 279 279 279 279 279 278 277 277 277 278 278 280 279 279 280 282 282 284 284 284 284 285 285 285 285 285 285
287 286 287 286 284 283 282 282 282 281 280 279 279 279 279 279 278 277 277 276 277 277 278 278 279 280 282 283 284 284 284 285 284 285 285 286 286 286
287 286 286 286 285 283 282 282 282 281 281 281 280 280 279 279 278 277 276 276 277 277 278 279 278 280 281 281 283 284 284 284 284 285 287 287 286 286
287 287 287 286 286 284 283 282 282 281 281 281 281 280 279 279 277 277 276 276 277 278 278 278 278 279 280 281 283 283 283 284 285 285 286 287 287 287
286 286 285 285 285 284 283 282 282 282 280 281 281 280 279 278 277 276 276 276 276 276 277 278 279 280 280 282 283 283 283 283 284 286 286 287 287 285
286 285 284 283 282 282 282 282 282 282 280 281 281 280 279 278 277 276 276 276 276 276 276 277 277 278 280 282 282 282 283 284 285 286 286 286 285 285
285 284 283 281 282 282 282 282 282 281 280 281 281 280 279 278 277 276 276 275 275 275 275 276 276 277 279 280 282 282 282 283 284 285 285 285 285 285
285 284 283 281 281 282 282 281 281 281 280 281 282 280 278 278 276 276 276 275 275 275 275 276 276 276 278 274 280 281 281 282 283 284 284 284 284 284
286 284 284 283 282 281 282 281 281 281 281 281 281 280 278 277 276 276 276 275 275 275 275 275 275 275 276 277 279 280 281 281 282 283 283 283 284 284
285 284 284 283 283 283 282 282 281 281 281 281 281 280 279 277 277 276 276 275 275 275 274 274 274 277 278 278 277 280 280 280 280 281 282 283 283 283
285 285 284 284 283 283 283 282 282 281 281 281 281 280 279 277 277 276 275 275 275 275 274 273 276 278 279 281 282 280 280 280 280 281 281 281 281 280
281 283 284 284 283 283 282 282 282 282 282 282 282 281 279 278 277 276 275 275 275 274 274 273 276 277 278 279 281 281 281 280 280 280 281 281 281 282

GFSNE_925_thetae_066.txt.gz
Theta_e
294 293 292 292 291 293 294 294 294 293 290 289 289 289 288 287 285 284 283 282 282 282 283 284 285 285 286 286 287 287 287 287 288 288 289 289 290 290
293 292 292 291 290 292 292 292 292 291 290 289 288 288 286 284 283 281 280 280 280 280 282 283 283 284 284 285 286 286 287 287 288 288 288 289 289 290
293 292 291 290 290 292 291 290 290 289 288 288 285 284 283 283 282 280 279 280 280 280 281 282 283 284 284 284 285 285 285 286 286 287 287 288 288 289
293 292 292 291 290 291 290 290 289 289 287 283 283 283 283 282 281 279 279 280 280 280 281 282 282 282 282 282 283 283 284 284 285 285 286 286 286 287
292 292 292 291 290 290 290 289 288 286 284 283 282 282 281 281 279 278 279 279 279 279 279 280 280 281 281 282 282 283 283 284 284 285 285 285 285 286
292 291 291 291 290 290 289 289 288 285 283 282 282 281 281 280 278 279 279 279 278 279 279 280 280 280 281 281 282 282 283 284 284 284 284 284 283 284
291 290 290 290 289 288 288 287 286 284 283 282 281 280 280 278 278 279 278 278 278 279 279 279 279 280 280 280 281 281 282 283 283 284 285 285 285 285
290 290 289 289 289 288 287 286 286 284 283 282 281 279 279 277 278 278 278 278 278 279 279 279 279 279 280 281 281 281 282 283 284 285 285 285 285 285
290 289 289 288 287 286 285 285 284 283 283 282 281 280 278 278 278 278 278 278 279 279 278 279 279 279 280 280 281 282 282 283 284 285 285 285 285 285
289 288 288 287 286 285 285 284 284 283 282 281 281 279 278 278 279 279 278 278 277 277 278 278 278 279 279 281 282 283 283 283 284 285 285 285 285 285
288 287 288 286 286 285 284 284 283 282 282 281 280 279 279 279 279 279 278 276 277 277 277 278 279 279 279 281 282 283 283 283 284 284 284 284 285 285
287 287 287 286 286 285 284 283 283 282 282 281 279 278 279 279 278 278 277 276 276 277 278 278 277 279 280 281 281 282 283 284 284 284 285 284 285 285
285 286 286 286 286 286 284 283 283 282 281 281 280 279 279 279 279 279 277 276 276 276 276 277 278 278 279 280 281 281 283 283 284 284 285 285 285 285
285 285 286 286 286 286 286 284 283 282 281 281 281 280 280 280 279 278 277 276 276 276 277 277 277 278 278 279 280 281 282 283 283 284 284 285 287 286
285 286 286 286 286 286 285 284 283 282 282 281 280 280 281 280 279 278 277 276 276 276 276 277 277 277 278 279 280 281 283 283 283 284 284 286 286 286
286 286 286 285 285 285 284 284 283 282 282 282 281 280 281 280 279 278 277 276 275 275 276 276 277 277 278 279 280 282 282 282 284 284 285 286 286 286
286 285 285 284 284 284 283 283 282 282 282 281 281 280 281 280 279 278 276 276 275 275 275 276 276 276 277 278 279 282 282 282 283 283 284 285 285 284
285 285 284 283 283 282 281 282 282 281 282 282 281 280 280 280 279 278 276 276 275 275 275 275 275 275 276 279 280 282 281 281 282 283 283 284 284 284
286 285 283 284 283 282 281 281 281 282 282 281 280 280 281 280 278 277 276 276 275 275 275 275 275 275 277 277 278 280 280 280 280 282 283 283 283 283
285 285 285 284 283 282 282 281 281 282 281 281 281 280 281 280 278 277 276 276 275 275 275 275 274 275 276 277 278 278 279 280 280 279 281 283 284 284
284 284 285 284 284 283 282 282 281 281 282 281 281 280 281 280 278 277 276 276 275 275 275 274 274 275 277 277 276 278 280 280 279 280 280 280 282 283
274 275 278 281 283 283 283 282 281 281 281 281 281 281 281 280 278 278 276 276 275 275 274 274 274 276 278 280 281 280 280 280 280 280 281 281 281 282
270 271 272 274 277 279 282 282 281 281 281 282 281 281 280 280 279 277 277 275 275 275 274 273 275 276 277 279 279 280 280 280 280 280 280 280 280 281

GFSNE_925_thetae_072.txt.gz
Theta_e
299 298 298 297 297 296 295 294 294 297 296 294 294 293 292 291 291 290 289 288 286 284 283 282 283 284 285 285 286 286 287 287 288 288 289 289 289 290
298 298 297 297 296 296 295 294 294 294 296 293 293 293 292 291 290 288 287 286 285 284 283 282 282 283 284 284 285 285 286 286 287 288 288 289 289 290
298 297 297 296 296 295 295 294 293 293 293 293 292 292 292 291 289 289 288 286 285 284 283 283 282 282 283 283 283 284 284 284 285 285 286 287 287 288
297 297 297 296 296 295 294 294 293 293 292 292 292 292 291 290 288 288 287 286 284 284 283 282 282 282 282 282 282 283 283 283 283 284 284 285 285 286
297 296 296 296 295 295 294 293 293 292 292 292 291 291 290 289 288 287 286 285 284 284 283 282 282 282 282 282 282 282 283 283 283 283 284 284 284 285
296 295 295 295 294 294 293 292 292 292 291 290 290 290 289 289 288 287 286 285 284 284 284 283 282 283 282 282 282 282 282 282 283 283 284 284 284 285
294 295 295 294 293 293 291 291 291 290 290 289 290 289 289 288 287 287 286 285 284 284 284 284 284 284 284 283 283 283 283 283 283 283 284 284 284 284
293 293 293 293 293 292 290 290 289 289 289 290 290 289 288 288 287 286 285 284 285 284 284 284 283 283 284 284 283 282 282 282 283 283 284 284 284 284
292 292 292 292 292 291 291 290 289 288 288 288 289 288 287 287 286 285 284 284 284 284 283 283 283 283 284 284 283 283 283 283 284 284 284 284 284 284
292 292 292 292 291 291 291 290 289 288 287 286 286 286 286 286 285 284 283 283 283 283 283 283 283 283 284 283 283 283 283 283 284 284 284 284 284 284
292 291 291 291 291 290 290 289 289 288 287 287 286 285 284 284 283 282 282 282 283 283 283 283 283 283 282 283 285 284 283 283 284 284 285 285 285 284
291 291 291 290 290 288 288 289 288 288 287 287 286 284 283 283 282 281 282 282 282 283 283 282 282 282 283 282 284 283 284 284 284 284 286 286 286 286
287 287 289 289 289 288 286 287 287 288 287 287 286 285 285 284 283 282 282 282 282 282 283 281 281 281 281 282 283 282 283 284 285 285 286 286 285 286
285 286 286 287 287 288 287 285 286 286 286 287 287 286 285 284 284 283 283 283 282 282 281 281 280 280 281 281 282 282 282 283 284 285 286 286 286 286
285 286 285 285 285 286 286 286 285 286 286 287 287 286 285 285 284 284 283 282 282 281 281 280 280 280 280 281 281 282 282 283 283 286 285 286 286 287
286 286 286 286 286 286 287 286 285 285 286 287 287 286 285 285 284 283 283 283 282 282 281 281 280 279 280 280 281 281 281 283 284 285 285 285 286 287
284 286 287 288 288 287 287 286 286 285 285 286 286 286 286 285 284 283 283 282 282 282 282 281 281 280 280 280 280 281 281 283 285 285 284 285 286 288
284 285 286 287 287 287 287 287 286 286 285 285 285 285 285 285 284 283 283 282 282 282 282 281 281 281 281 282 281 282 282 284 285 284 284 285 286 287
281 281 282 282 283 283 287 287 287 286 285 285 286 285 284 284 284 283 283 282 282 281 281 281 281 281 282 283 283 281 282 283 283 283 283 284 285 285
278 278 278 278 279 280 281 281 285 286 286 285 285 285 284 284 284 283 282 282 282 281 281 281 281 280 281 282 281 281 281 281 282 283 283 283 284 285
275 275 275 275 276 277 277 278 279 281 284 285 285 284 284 284 283 283 283 282 281 281 281 281 281 278 277 279 281 282 283 281 280 281 281 283 284 286
273 273 273 273 274 274 275 275 276 278 279 283 284 283 284 283 283 283 283 282 281 280 281 280 280 279 280 281 282 283 285 283 282 281 281 280 282 284
271 271 271 271 272 272 273 273 274 275 276 278 278 283 283 283 283 283 283 282 281 281 280 280 279 279 280 281 281 282 283 283 283 283 283 282 281 281

GFSNE_925_thetae_075.txt.gz
Theta_e
302 301 301 300 299 298 298 298 297 298 298 296 296 296 295 295 294 293 293 292 290 289 288 285 284 285 285 285 286 286 287 287 287 288 288 289 289 290
301 301 301 300 299 298 298 297 297 296 299 295 295 295 295 294 294 293 292 291 289 289 287 285 284 284 284 284 284 285 285 286 287 287 287 288 289 290
301 300 300 299 298 298 297 297 296 296 297 296 295 294 294 293 293 293 292 291 290 289 286 285 284 283 283 283 283 283 284 284 284 285 285 286 287 288
300 300 299 298 298 298 297 297 296 296 295 296 295 294 294 293 293 293 291 290 289 288 287 285 284 283 282 282 283 283 283 283 284 284 284 285 285 286
300 298 298 298 297 297 297 297 296 295 295 295 295 294 293 292 292 291 291 289 289 287 286 285 285 284 283 283 283 283 283 283 283 283 283 284 284 284
297 297 297 297 296 296 296 296 295 295 294 294 293 292 291 291 291 291 290 289 288 288 286 286 285 285 285 284 284 284 283 284 284 283 283 283 284 284
295 295 295 295 295 295 295 294 294 293 293 293 292 291 291 291 291 290 290 289 288 287 286 286 286 286 285 285 285 285 284 284 283 283 283 283 283 284
294 294 294 294 294 294 294 293 293 292 292 291 291 291 291 291 290 290 289 288 288 286 286 286 286 285 285 285 285 284 283 283 283 283 284 284 284 284
292 293 293 293 293 293 293 293 292 292 291 290 290 289 290 290 289 288 288 287 287 286 285 285 284 285 285 285 285 284 283 283 283 283 284 284 284 284
293 293 293 293 293 293 292 292 292 291 291 290 289 289 288 288 288 288 287 286 285 284 284 285 285 285 285 285 284 284 284 284 284 283 284 284 285 285
292 292 292 292 291 291 291 291 291 291 291 289 288 288 288 287 286 285 285 285 285 284 284 285 285 284 284 284 284 284 284 284 284 284 284 285 285 286
288 288 288 287 287 287 288 289 290 289 289 289 288 288 287 286 285 284 284 284 284 285 284 284 285 284 284 283 284 283 284 284 284 284 285 285 286 285
286 286 287 287 286 286 287 287 288 288 288 288 288 288 288 287 286 285 284 283 284 284 283 283 283 283 283 283 283 283 283 284 284 285 285 285 286 286
285 286 287 287 286 286 286 286 286 286 286 286 288 288 288 287 287 286 285 284 284 283 283 283 283 283 282 282 282 282 283 283 283 283 284 285 286 286
283 284 285 286 286 287 287 287 287 286 286 286 287 288 288 287 287 286 285 285 284 284 283 283 282 282 282 282 282 282 283 283 283 284 285 285 286 285
282 282 283 285 287 288 288 288 287 286 286 287 287 287 288 288 287 286 286 285 284 284 283 282 282 282 281 281 281 282 282 283 283 283 284 286 285 286
279 282 285 285 286 286 287 288 288 287 286 287 287 287 287 287 286 286 286 285 285 284 283 283 283 282 282 282 282 282 282 283 283 284 285 285 285 286
280 282 282 282 282 282 284 284 286 287 287 287 287 286 286 286 286 286 285 285 285 284 283 283 283 283 283 282 282 283 283 284 284 285 284 284 285 285
280 280 280 279 279 280 280 281 282 283 284 287 286 287 286 286 285 286 285 285 284 283 283 283 283 282 283 284 283 283 283 283 283 283 284 284 284 283
278 278 278 278 277 277 278 278 279 279 281 281 286 286 286 286 286 285 285 285 284 283 283 282 283 282 282 283 282 282 281 282 282 283 283 282 283 285
276 276 276 276 275 275 276 276 277 277 278 279 281 284 286 285 286 285 285 284 284 283 282 282 282 281 280 279 280 282 284 283 282 282 282 282 283 284
274 274 274 274 273 273 274 274 275 275 276 277 277 279 281 284 285 285 285 284 283 283 282 282 282 281 281 281 282 283 284 283 282 281 281 281 282 283
273 273 272 273 272 272 272 272 272 273 273 274 276 275 275 278 283 285 284 284 284 283 282 282 281 281 281 281 282 282 283 284 284 284 283 283 281 281

GFSNE_925_thetae_078.txt.gz
Theta_e
303 303 302 302 301 301 299 299 299 296 296 297 297 296 295 295 295 295 295 294 293 292 292 290 289 288 286 286 286 286 286 287 287 288 288 289 289 290
303 302 302 301 301 300 299 298 298 298 296 297 297 296 295 295 295 294 294 293 293 292 291 290 289 287 285 285 285 285 285 285 286 286 286 287 287 288
302 302 301 300 300 300 299 298 298 298 297 296 296 296 295 295 294 294 294 293 293 292 290 289 288 286 286 284 283 283 284 284 284 285 285 285 286 287
302 301 301 301 300 299 299 299 298 298 297 296 296 296 295 295 294 293 292 292 292 291 289 289 288 287 285 284 284 284 284 283 284 284 284 284 285 285
301 301 300 299 298 298 298 298 298 297 297 296 295 295 294 294 292 291 291 291 291 291 289 289 287 286 285 285 285 285 284 284 284 284 284 284 283 284
299 298 297 297 296 296 296 297 297 297 295 294 293 293 292 292 291 291 290 290 290 290 289 288 287 286 286 286 285 285 285 285 285 284 284 284 283 284
295 295 295 295 295 295 294 294 294 295 294 294 293 292 291 291 290 290 291 290 290 289 288 287 286 286 286 285 285 285 285 284 284 284 283 283 283 284
293 293 293 293 293 293 293 293 293 293 293 293 293 292 291 290 290 290 290 289 288 288 287 286 286 286 285 284 285 285 285 284 284 283 283 283 284 284
292 292 293 293 294 294 294 294 293 293 293 292 292 291 291 290 290 289 289 288 288 287 286 285 284 284 284 285 285 285 284 284 285 283 283 282 283 284
293 293 293 293 292 291 290 289 289 290 291 292 291 291 290 290 289 288 288 288 286 286 285 284 284 284 285 285 284 284 283 284 284 284 283 283 284 284
291 290 289 289 288 287 287 286 287 287 288 288 290 290 289 289 289 288 287 286 285 285 285 284 284 285 285 284 284 283 284 284 284 284 284 284 284 285
287 286 286 286 287 287 287 287 287 287 287 287 288 288 288 288 288 287 287 285 285 284 284 284 284 284 284 283 283 283 282 283 283 283 284 284 285 285
284 284 285 286 286 286 286 285 286 286 286 286 286 287 287 288 288 287 286 285 284 284 284 284 284 284 283 283 282 282 281 282 283 283 283 283 283 284
282 282 283 283 282 283 284 286 287 288 286 286 286 286 286 288 288 288 286 285 285 284 283 284 283 283 283 282 281 281 282 282 282 283 283 283 284 285
280 281 281 281 284 286 287 287 288 288 287 286 286 286 286 287 288 287 287 286 286 285 284 284 284 283 283 282 281 282 282 281 282 283 282 282 283 285
278 278 279 283 284 283 283 284 285 285 287 287 286 286 287 287 287 288 287 286 286 285 285 284 284 283 282 282 282 281 281 282 282 282 283 283 284 285
277 279 280 282 281 281 281 281 282 282 283 285 286 286 287 287 287 287 287 286 286 285 285 284 284 283 283 283 282 282 282 282 282 283 284 284 283 284
278 279 281 280 279 279 279 279 279 279 280 280 282 287 287 287 287 287 286 286 285 285 285 284 283 283 283 283 283 282 282 283 283 283 283 282 284 283
279 279 279 278 278 277 277 277 277 277 278 279 279 281 284 286 286 286 286 286 285 285 284 283 283 283 282 278 282 283 283 282 282 282 282 284 283 282
277 277 277 276 276 275 275 275 275 275 276 276 277 278 280 280 286 286 285 285 285 285 284 283 283 283 283 280 281 282 280 280 282 281 282 282 281 283
276 276 275 274 274 274 273 273 273 274 274 274 275 276 276 277 278 285 286 285 285 284 284 283 283 282 282 280 279 280 281 283 284 282 282 282 282 282
274 273 273 273 273 273 272 272 272 272 272 272 273 273 274 274 275 278 280 285 284 284 284 283 282 282 282 281 280 281 282 283 283 282 281 281 281 278
272 272 272 271 271 271 271 270 271 271 270 271 272 271 271 271 272 274 277 283 284 283 283 282 282 282 281 281 281 281 282 282 284 284 284 283 283 282

GFSNE_925_thetae_081.txt.gz
Theta_e
303 303 304 303 301 301 301 300 298 295 294 297 297 297 297 296 295 295 295 294 294 293 293 292 292 290 289 289 288 287 286 286 286 287 287 288 288 289
305 304 303 302 302 301 301 300 299 298 296 297 297 297 297 296 296 295 295 294 294 293 293 292 291 290 290 288 286 285 285 285 286 286 286 286 287 287
304 304 303 302 301 301 300 300 299 299 297 297 297 297 297 296 296 295 295 294 293 293 293 292 291 290 289 287 286 285 284 284 285 285 285 286 286 286
304 302 302 301 301 301 300 300 299 299 298 296 296 297 296 295 294 294 293 292 291 291 291 291 291 289 289 287 285 285 285 285 284 284 285 285 285 285
302 302 301 300 299 298 297 297 297 297 297 297 295 295 294 293 293 292 292 291 291 290 290 291 290 288 287 286 286 286 285 285 285 284 284 284 284 285
302 300 298 297 296 296 296 296 296 296 296 295 295 294 293 293 292 291 291 290 290 290 290 290 289 288 287 286 286 286 285 285 286 286 285 284 284 284
297 295 295 294 294 293 293 293 293 293 293 293 292 292 292 292 292 292 290 290 290 290 290 289 288 287 286 286 285 285 284 285 285 284 284 284 284 284
295 292 291 292 292 292 293 294 293 291 291 291 290 290 291 291 292 292 290 288 288 289 288 288 287 286 285 285 285 284 285 285 284 284 284 284 283 283
292 291 291 293 293 292 291 291 290 289 288 287 289 290 290 291 291 290 290 289 288 288 287 286 286 285 285 284 283 284 285 285 283 284 284 284 283 283
293 293 292 291 290 288 287 287 286 286 286 286 286 287 287 288 289 289 289 289 288 288 286 285 285 285 284 283 284 285 284 284 284 284 284 284 284 284
291 290 288 287 286 285 286 286 287 286 286 285 286 286 286 286 288 288 287 286 286 286 286 285 285 285 284 284 284 284 283 283 282 283 283 283 284 284
285 285 284 283 284 285 285 283 283 284 284 286 286 286 286 285 286 286 287 286 285 284 286 285 284 284 283 283 283 283 283 282 281 281 282 283 283 283
284 282 281 281 281 281 283 285 285 286 286 286 286 286 285 285 285 286 287 287 286 285 286 284 284 283 283 283 283 283 282 282 281 281 281 282 282 283
280 280 279 279 279 282 284 284 284 284 284 285 286 285 285 285 285 286 286 287 287 285 285 284 284 283 283 283 282 282 282 281 281 281 281 282 282 282
278 278 278 278 282 282 281 280 280 282 282 282 284 286 286 285 285 286 286 287 287 287 286 285 284 283 283 283 283 282 281 281 281 281 281 282 283 283
277 277 278 280 282 280 279 278 279 279 279 280 279 280 282 285 286 286 287 286 286 285 286 285 285 284 284 284 282 282 282 281 282 281 282 282 284 284
277 278 279 280 279 278 277 277 277 277 277 277 278 278 279 281 285 286 287 286 286 285 285 285 285 285 284 283 282 282 282 282 282 282 282 283 283 282
278 278 278 278 277 276 276 275 275 275 275 275 275 276 277 279 279 285 286 286 286 285 284 285 284 284 284 283 283 283 282 282 282 283 282 282 282 283
277 277 276 275 275 275 274 274 274 273 273 274 273 274 275 276 277 277 284 286 285 284 284 285 284 283 282 279 282 282 282 283 282 280 281 281 282 282
276 276 275 274 274 273 273 273 272 272 272 272 271 272 273 274 274 275 276 284 285 285 284 284 284 283 282 280 282 282 282 281 280 281 283 282 281 281
275 274 273 273 272 272 271 271 271 271 271 270 270 271 271 271 272 272 273 275 278 285 284 283 284 283 282 282 279 280 280 280 281 283 283 282 281 281
272 272 271 271 271 270 270 269 269 269 269 269 269 270 269 269 270 270 271 273 275 280 284 284 283 282 281 281 280 280 280 281 282 282 283 282 281 277
271 270 270 269 269 269 268 268 268 268 268 268 268 267 267 267 268 269 269 270 274 275 283 284 283 282 282 282 281 281 280 281 282 283 283 284 283 283

GFSNE_925_thetae_084.txt.gz
Theta_e
309 308 305 303 305 305 301 301 299 295 293 298 297 298 297 297 297 296 296 295 295 295 294 294 293 292 292 291 291 291 289 288 287 287 287 287 288 288
310 307 303 305 304 302 302 301 301 299 294 298 298 298 298 297 297 296 296 296 295 295 294 293 292 292 291 291 290 291 289 288 287 287 286 287 287 287
307 304 307 303 303 302 301 301 300 299 296 298 298 298 297 297 297 296 295 295 294 294 294 293 293 292 291 291 290 289 289 286 287 286 286 286 286 286
307 306 303 303 303 301 301 300 300 300 298 296 297 297 297 297 296 295 294 294 293 293 292 291 291 291 290 291 290 289 287 285 285 285 286 286 286 286
306 304 303 302 301 301 300 298 297 296 296 296 295 295 295 295 294 294 293 292 292 292 291 289 290 289 290 290 289 288 286 285 285 285 285 285 285 285
304 303 302 301 298 296 295 294 294 293 293 293 292 292 292 292 292 292 292 292 292 291 290 289 289 290 289 288 288 286 286 286 285 285 285 285 284 284
302 300 296 295 293 293 292 292 293 293 292 291 290 290 290 290 290 291 291 291 291 291 290 290 288 289 289 289 287 286 286 285 284 285 285 284 284 284
296 294 293 291 291 292 292 292 291 290 289 287 287 288 287 288 289 290 289 289 289 290 289 289 288 288 288 286 286 285 284 283 284 285 284 283 284 284
293 292 291 292 292 292 291 290 289 288 287 286 286 286 286 286 287 287 287 287 288 288 288 288 287 286 286 286 285 284 283 284 285 284 284 284 283 284
293 292 292 291 290 288 287 286 286 285 285 286 285 285 285 285 286 286 287 287 287 287 288 286 287 287 287 285 285 283 284 285 284 284 283 283 283 283
291 290 288 287 285 284 284 284 282 282 284 285 285 285 286 286 286 286 286 285 286 286 286 286 286 285 285 285 284 283 283 284 283 282 281 281 281 282
287 286 284 282 281 281 281 282 284 285 285 285 285 285 286 285 285 284 285 284 285 285 285 285 285 285 283 283 283 283 283 283 282 282 281 281 282 281
284 283 280 279 279 279 281 283 283 282 282 282 283 284 284 285 285 285 284 284 285 286 286 285 285 283 283 283 283 283 283 283 282 281 281 280 280 282
281 279 278 278 278 281 282 281 280 279 279 280 280 281 281 282 284 285 285 285 285 285 285 285 284 284 283 283 283 283 283 283 282 281 281 281 281 282
278 277 277 278 281 281 279 278 278 277 277 278 278 278 278 279 280 283 284 284 285 285 285 285 284 284 283 283 283 283 283 283 282 281 281 281 282 282
278 277 278 279 280 279 278 277 276 276 276 276 275 276 276 277 278 279 280 284 285 285 285 285 286 284 283 283 283 283 283 282 282 282 282 282 282 283
278 278 278 278 277 277 276 276 274 274 274 273 274 273 274 274 276 276 278 279 285 286 285 285 285 285 285 284 283 283 283 282 283 282 282 283 282 282
278 278 277 276 275 275 274 274 273 273 272 272 272 272 272 272 274 274 275 277 280 286 285 284 284 284 283 284 284 283 283 283 282 282 282 282 281 281
277 276 275 274 274 273 273 272 272 272 271 271 270 270 271 271 271 272 273 274 276 278 285 284 283 284 282 279 283 282 283 282 282 282 282 280 282 281
276 275 274 273 272 272 271 271 270 270 270 269 269 269 270 269 269 270 271 271 273 275 278 283 283 284 283 279 281 282 282 282 282 281 280 282 282 281
273 272 272 271 271 270 270 269 269 268 268 268 268 268 268 267 267 268 268 270 271 273 275 281 283 284 284 283 279 281 282 280 280 280 281 281 282 281
271 271 270 270 269 268 268 268 267 267 267 267 267 267 267 266 266 266 267 268 269 271 273 274 282 283 282 281 280 281 281 280 280 281 282 282 282 277
270 269 268 268 268 267 267 266 266 266 267 267 266 266 266 266 266 266 265 266 268 270 271 273 281 282 282 281 281 281 281 281 282 282 282 283 283 283

GFSNE_925_thetae_087.txt.gz
Theta_e
312 313 310 311 311 309 301 305 300 298 296 299 298 299 298 298 297 297 297 296 296 296 295 295 294 294 294 295 294 294 293 293 292 290 289 288 288 288
312 311 312 312 309 303 306 302 301 300 295 299 299 299 299 298 298 297 297 296 296 296 295 295 294 294 293 293 293 292 292 292 292 290 289 288 288 287
312 311 311 309 305 304 305 303 302 299 295 298 298 298 298 298 297 296 296 296 295 295 294 294 293 293 293 293 292 292 291 291 291 290 288 288 287 287
312 310 309 305 305 305 303 302 301 300 298 296 297 297 296 295 295 295 295 294 294 293 293 292 292 292 291 291 291 291 290 290 290 289 287 287 287 287
310 308 306 306 304 303 302 301 300 299 297 295 294 294 294 293 292 292 292 292 292 292 292 292 291 291 290 289 288 289 290 290 289 287 285 285 285 286
309 307 307 304 303 302 300 298 296 295 294 292 291 291 291 292 291 291 290 290 290 291 291 291 291 291 291 289 288 289 289 288 287 286 286 285 285 285
307 305 303 302 300 297 295 294 293 292 292 291 290 289 289 288 288 288 288 288 288 288 289 289 290 290 289 289 288 288 288 288 287 286 286 285 285 285
302 301 296 293 293 293 292 292 291 291 290 288 287 287 286 286 286 285 286 287 286 286 287 288 288 288 288 288 288 288 287 285 285 284 284 284 285 284
301 294 292 291 291 291 290 290 290 289 287 286 286 286 285 285 285 285 285 285 285 286 286 286 286 287 288 288 287 286 285 285 285 283 284 285 284 284
292 291 291 290 290 289 288 287 286 285 284 283 283 284 284 285 285 285 285 285 285 285 285 286 286 287 287 288 286 286 285 285 283 284 285 284 284 283
291 290 290 288 285 284 283 282 282 282 284 285 285 284 285 285 285 285 285 285 285 285 285 285 285 285 285 287 287 286 285 283 284 284 284 283 282 281
288 286 284 283 281 281 280 281 283 283 282 282 282 282 282 283 284 284 285 284 285 284 285 284 284 284 284 286 286 285 283 283 283 283 282 282 281 282
284 283 281 279 279 279 280 283 282 280 279 279 279 279 280 280 282 282 284 285 285 284 284 285 285 285 284 283 283 283 283 283 283 282 282 281 280 281
281 279 278 278 278 280 282 281 279 278 277 277 277 278 277 278 278 278 280 282 283 284 284 285 285 284 283 283 282 283 283 283 283 282 281 281 281 281
278 278 278 278 279 281 280 279 278 277 276 275 276 275 276 275 275 276 277 278 280 282 284 284 285 284 284 283 283 282 283 283 283 283 281 281 281 282
278 277 278 279 280 279 278 277 276 275 274 274 274 274 273 273 273 274 275 275 277 279 282 284 285 284 284 283 283 282 283 283 283 282 282 282 282 282
278 278 278 278 277 277 276 275 274 274 273 272 273 271 271 271 271 273 272 273 275 276 277 282 285 285 284 283 282 282 283 283 283 282 282 282 282 282
277 277 277 276 275 275 274 274 273 272 272 271 271 270 269 270 270 270 270 271 272 273 275 276 283 283 282 283 283 283 283 283 283 282 282 281 282 281
277 277 275 274 274 274 273 272 271 271 270 270 269 269 268 269 268 268 269 269 270 271 273 274 277 284 283 283 283 283 283 283 282 282 282 282 282 280
276 275 273 272 272 271 271 270 269 269 268 268 268 268 268 267 267 267 267 267 268 269 271 273 275 283 283 281 280 283 282 282 282 282 282 281 281 282
272 272 271 271 270 269 269 268 268 267 267 267 267 267 267 266 266 266 265 266 266 268 269 271 273 274 277 283 280 282 282 282 282 282 280 280 280 281
270 270 269 269 268 268 267 267 266 266 266 266 266 266 266 266 265 265 265 265 265 266 268 270 271 274 279 282 280 282 282 281 280 280 280 281 282 277
268 268 267 267 267 266 266 265 265 265 266 266 265 265 265 265 265 265 264 264 264 265 267 269 270 272 280 282 282 281 281 281 281 281 282 281 282 283

GFSNE_925_thetae_090.txt.gz
Theta_e
316 314 311 310 311 309 309 311 305 300 298 299 299 300 299 298 298 297 297 297 296 296 296 296 295 295 295 294 294 296 296 296 295 294 293 293 292 290
315 313 310 310 313 308 310 309 302 302 300 301 300 300 299 299 298 298 297 297 297 296 296 296 295 294 294 294 294 293 294 295 294 294 293 292 292 290
313 312 310 311 312 309 308 305 304 301 299 299 299 299 299 299 298 297 296 295 295 295 295 294 294 293 293 292 292 292 292 292 292 292 292 292 292 290
311 310 309 310 310 309 308 304 304 302 301 297 298 298 298 297 296 295 295 294 294 293 293 292 292 292 292 292 292 292 291 292 292 290 290 291 291 290
310 310 310 310 307 307 304 304 303 302 300 297 297 296 295 294 293 292 292 292 292 292 291 291 291 292 291 291 291 290 290 290 289 289 290 290 289 288
310 310 308 308 307 306 305 303 302 301 298 295 293 292 291 292 291 290 290 290 288 287 286 285 285 287 290 290 290 290 290 289 288 289 289 288 287 286
308 307 306 306 306 304 302 302 300 296 293 291 290 289 289 289 289 288 286 285 285 285 285 285 285 286 286 288 289 289 289 288 288 288 288 287 286 286
306 305 304 303 302 302 298 294 293 292 291 290 289 287 287 287 286 285 285 285 285 285 286 286 285 285 285 285 286 286 288 288 288 288 286 286 286 284
303 299 297 296 296 294 292 291 290 290 289 288 287 286 285 284 284 284 284 284 284 284 285 285 285 285 286 285 285 287 288 287 287 286 285 284 284 283
299 297 295 291 289 290 289 290 289 287 284 283 283 283 284 285 285 285 285 285 285 285 285 285 285 285 284 285 285 285 287 286 285 285 285 283 284 285
292 290 289 288 287 289 288 284 282 282 282 283 284 283 283 283 283 283 284 285 285 285 285 285 285 284 284 284 285 285 286 286 285 285 284 284 284 284
287 288 287 285 283 281 281 281 281 283 282 281 280 280 279 280 280 283 284 285 285 285 285 284 284 284 285 285 285 286 286 286 285 284 283 284 283 282
284 282 280 279 279 279 279 282 282 281 279 278 278 278 278 277 277 278 279 279 280 282 284 284 284 284 284 284 285 284 285 285 284 283 283 283 282 281
282 281 279 278 278 280 281 281 279 278 278 277 277 277 276 276 276 275 275 276 278 278 280 281 284 284 284 284 283 284 284 283 283 282 282 282 281 281
279 278 278 279 279 280 279 279 278 277 276 275 275 275 275 274 274 274 274 275 275 275 277 278 279 283 284 284 284 283 283 283 283 282 283 282 282 281
279 279 278 278 280 279 278 277 276 275 274 274 273 273 272 272 272 272 272 273 272 273 275 275 277 279 284 284 284 284 283 283 283 283 283 282 282 282
278 278 278 278 278 277 276 275 275 274 273 273 272 272 271 270 270 270 270 270 271 272 272 273 275 276 280 284 284 283 283 283 283 283 282 282 282 282
278 277 277 276 276 275 275 274 273 272 272 271 270 270 269 268 269 269 268 268 269 269 270 271 272 274 278 283 284 283 282 283 283 283 282 281 282 282
276 277 275 274 273 273 273 272 271 270 270 269 268 268 267 267 268 267 267 267 267 268 268 269 271 274 277 281 283 283 283 283 282 283 282 281 281 282
273 273 272 272 271 271 270 269 269 269 268 267 267 267 267 266 265 266 266 265 266 266 267 268 270 272 274 274 276 282 282 283 283 282 282 281 282 281
270 270 270 270 269 268 268 267 267 267 266 266 266 266 266 266 265 265 265 265 264 266 266 267 268 269 271 273 277 280 283 282 282 282 282 281 280 281
268 268 267 267 267 266 266 265 265 265 265 265 265 265 265 265 264 265 264 264 265 265 265 266 267 269 271 273 278 280 281 281 282 281 281 280 281 281
265 265 265 265 264 264 263 264 263 263 263 263 263 264 264 264 264 264 263 264 264 264 264 265 267 268 271 273 276 280 281 281 280 280 280 280 281 281

GFSNE_925_thetae_093.txt.gz
Theta_e
318 317 315 312 310 310 310 310 310 310 302 303 301 301 301 299 299 300 298 297 296 296 296 296 296 296 296 295 295 295 295 297 297 296 296 296 295 294
317 316 315 312 310 309 309 311 309 309 311 305 302 301 301 300 299 298 298 298 297 297 297 296 296 296 296 295 294 294 294 294 295 296 295 295 294 294
316 316 316 313 310 309 308 311 309 307 309 306 304 301 300 299 299 298 298 298 297 297 296 295 295 295 294 293 293 293 293 292 292 292 294 294 293 293
317 315 316 312 310 308 308 309 306 304 304 304 301 300 299 299 299 298 297 296 295 295 294 294 294 293 293 292 292 292 292 292 292 292 291 292 293 292
316 316 316 314 310 308 308 307 305 303 302 300 299 298 298 299 297 296 295 293 292 292 292 292 291 291 291 291 291 291 291 291 291 291 290 290 289 289
316 317 315 312 310 308 307 305 303 302 300 298 297 296 295 294 293 293 293 292 291 290 289 287 286 285 285 285 285 286 288 290 290 290 290 289 288 289
314 313 312 311 310 308 306 303 303 301 298 295 293 291 293 291 292 292 291 290 289 287 287 287 287 287 287 286 286 286 286 288 289 289 289 288 289 288
310 308 307 306 305 305 304 303 302 300 296 291 292 291 290 289 290 289 288 287 287 287 287 287 286 286 286 287 287 286 285 285 286 287 288 288 288 288
306 303 302 301 300 299 295 294 292 292 292 291 290 288 288 288 286 286 286 286 286 286 286 286 286 286 287 287 286 285 284 285 287 288 287 288 288 286
297 296 295 293 292 292 291 290 289 289 288 287 286 285 285 285 285 285 286 286 285 286 286 286 286 286 286 286 286 285 285 285 285 287 287 286 285 285
290 289 289 287 287 288 288 286 285 284 283 283 284 284 284 283 283 284 285 285 285 285 285 285 286 286 286 286 286 285 285 285 285 286 285 285 285 285
286 285 285 283 282 282 282 282 283 284 282 282 281 280 280 280 279 280 282 283 284 284 285 285 286 285 286 285 286 286 286 286 286 286 285 285 285 285
284 283 282 281 281 281 281 282 283 282 281 280 280 279 280 278 278 279 278 278 280 281 282 281 283 284 285 285 285 285 285 285 286 287 286 284 283 283
282 281 280 279 279 281 281 281 281 280 279 279 278 279 278 277 277 276 276 276 276 277 278 278 278 280 282 283 285 285 285 285 285 286 286 285 283 283
281 280 280 280 280 281 280 279 278 278 278 278 278 277 276 275 274 274 274 274 275 275 275 275 277 279 280 281 283 285 285 285 285 285 285 284 284 284
279 279 279 279 279 280 279 278 277 276 276 276 275 275 274 273 273 272 272 273 273 274 274 275 275 276 277 279 280 283 285 286 285 285 285 284 284 284
279 279 279 279 279 279 278 277 276 275 275 274 273 273 273 272 272 271 272 272 272 273 273 273 274 274 275 276 278 281 284 286 285 285 284 284 284 283
278 278 278 277 277 277 277 276 274 274 273 272 272 272 271 271 270 270 271 271 271 271 271 272 272 273 276 278 279 282 284 285 285 284 283 284 284 284
276 275 275 274 274 274 274 273 272 272 270 270 270 270 269 269 269 269 269 269 270 270 270 270 271 273 276 278 278 280 283 285 285 284 284 284 284 284
272 272 272 272 271 271 270 269 269 269 268 268 267 267 267 268 268 268 268 268 268 268 269 270 271 272 273 275 274 274 276 278 284 284 284 284 283 282
269 269 269 268 268 267 267 267 266 266 266 265 266 266 266 266 266 266 267 267 267 268 269 269 270 269 269 272 274 276 277 280 283 284 284 283 283 282
266 266 266 266 265 265 265 265 265 264 265 265 265 265 265 265 265 266 266 266 267 267 267 268 268 269 271 272 274 276 276 282 283 282 282 283 283 283
263 263 263 263 263 263 263 263 263 262 263 263 263 263 264 264 265 265 266 266 266 266 266 267 268 269 270 272 272 274 275 281 283 282 282 281 280 281

GFSNE_925_thetae_096.txt.gz
Theta_e
322 322 321 318 315 315 314 312 313 315 313 311 308 307 304 306 305 302 302 300 301 301 297 296 295 295 295 295 295 295 295 297 298 297 298 297 297 297
321 321 321 319 318 317 315 313 312 312 313 312 309 309 308 305 303 301 300 300 300 299 297 296 296 296 296 296 296 296 296 295 295 296 297 297 296 296
321 321 320 320 318 316 314 312 310 310 311 312 313 312 308 306 302 299 300 300 299 298 297 297 297 297 296 296 296 295 295 294 294 294 295 295 295 295
320 319 318 317 316 315 313 310 310 309 310 311 312 309 306 303 301 300 298 298 299 300 299 297 297 296 295 295 294 294 294 293 292 293 292 292 295 294
320 318 318 316 314 313 312 310 309 309 309 309 310 304 300 299 298 297 298 298 299 298 296 296 294 294 293 293 293 292 292 291 291 292 292 292 292 292
320 319 318 315 313 312 312 310 310 309 308 306 304 298 297 296 297 297 297 297 297 296 293 292 292 291 290 290 288 287 286 285 286 288 290 291 291 291
318 316 315 315 314 313 312 310 308 306 302 299 296 295 295 294 293 295 293 294 294 293 292 291 289 289 289 288 287 286 286 286 286 286 287 288 289 290
315 314 312 309 308 309 309 307 305 301 297 295 293 292 292 292 292 291 291 291 292 291 289 289 289 289 288 288 288 287 287 287 287 286 285 285 287 288
306 303 300 298 297 297 296 295 294 293 294 293 291 291 290 290 290 290 289 288 288 288 288 289 289 289 288 288 288 287 287 286 285 285 284 286 287 288
294 292 291 290 289 290 290 290 288 288 288 288 288 287 286 286 286 286 286 287 287 287 287 288 288 289 288 288 288 287 287 286 285 285 285 286 287 287
288 288 288 288 288 288 289 287 287 286 285 285 284 284 284 284 284 285 286 286 287 288 287 287 288 288 288 288 288 288 287 286 285 285 285 285 286 287
286 286 286 286 286 286 285 284 284 284 284 283 283 283 282 282 281 281 283 284 285 285 286 286 287 287 288 287 287 287 287 287 286 286 286 286 286 286
284 283 283 283 283 283 283 283 284 283 283 282 282 282 282 282 281 281 281 280 281 282 283 282 283 283 284 285 285 285 286 286 287 287 287 286 286 285
283 282 281 281 281 281 282 281 281 281 281 282 281 281 281 281 280 279 278 277 278 278 278 278 279 280 281 281 282 283 284 285 286 287 287 288 287 286
282 281 280 281 281 282 280 280 280 281 280 280 281 280 279 278 277 276 276 276 276 276 276 276 277 277 278 280 281 282 282 283 285 287 286 287 288 286
282 281 281 281 280 280 280 280 280 279 278 278 278 277 277 276 276 275 275 275 276 276 276 276 276 277 277 278 279 280 281 283 283 286 286 287 287 286
281 281 281 280 280 280 279 280 278 277 277 276 276 275 275 275 274 274 274 274 275 275 276 276 275 275 276 276 277 278 279 281 282 284 287 287 287 286
279 278 278 277 277 277 277 276 276 275 274 273 273 273 273 272 272 272 272 273 273 274 274 274 274 275 275 276 277 278 280 281 282 283 286 287 287 287
276 275 275 274 274 274 273 273 272 271 271 271 271 270 270 270 270 271 271 271 272 272 272 272 273 274 276 277 277 278 279 280 280 280 286 286 286 286
272 272 272 271 271 270 270 270 269 269 269 269 268 268 268 269 269 269 270 270 270 270 270 271 272 273 274 275 274 273 274 275 277 279 286 286 285 284
270 270 270 269 269 268 268 268 268 267 267 267 267 267 267 267 268 268 268 268 268 269 270 271 271 271 271 272 273 275 276 278 278 279 283 285 285 284
268 268 268 267 267 267 267 266 266 266 266 266 266 266 266 266 267 267 267 268 268 269 269 269 270 270 271 272 273 275 276 277 277 280 282 285 285 286
266 266 266 266 266 265 265 265 265 265 265 265 265 265 265 265 266 267 267 267 268 268 268 269 270 270 271 272 273 274 275 275 277 283 283 283 283 283

GFSNE_925_thetae_099.txt.gz
Theta_e
323 324 323 324 323 323 322 318 317 318 318 317 315 312 311 310 310 309 306 305 305 304 305 303 302 301 300 298 297 296 297 297 297 298 299 299 299 299
323 324 323 323 322 321 320 317 316 315 317 317 315 313 312 310 313 314 307 307 305 306 305 302 300 299 297 296 295 295 295 295 295 295 296 298 298 298
322 323 323 323 323 322 321 319 318 316 315 316 314 314 311 311 311 312 309 305 305 304 303 299 300 299 297 295 295 295 296 296 295 296 296 298 298 297
323 323 323 323 323 321 321 319 317 316 314 313 314 313 313 312 311 309 307 304 304 303 301 300 299 297 296 296 296 296 296 296 296 295 294 294 295 296
323 323 322 321 319 319 318 316 315 314 313 311 312 312 311 311 310 308 306 303 301 301 300 299 298 297 296 296 296 295 295 294 294 293 293 293 292 292
323 320 320 321 320 318 317 315 314 312 310 309 309 308 305 302 301 299 298 298 298 298 298 296 296 294 294 294 293 293 293 292 292 291 290 289 289 289
321 320 317 314 314 312 311 310 311 310 309 308 302 298 297 296 296 296 297 296 295 295 293 293 292 292 292 291 291 291 289 288 286 285 285 285 286 286
312 308 305 303 301 299 299 299 300 301 299 298 294 294 292 292 293 293 292 291 292 292 291 291 291 290 290 290 290 289 289 289 288 288 288 287 287 286
299 297 295 293 293 293 292 293 292 292 292 292 290 289 289 289 290 290 290 290 290 289 289 289 289 289 289 289 289 289 289 288 288 287 287 286 286 285
291 290 290 290 290 290 290 290 289 289 289 289 289 288 288 288 288 288 288 287 287 287 287 288 289 289 289 289 289 289 289 288 288 288 287 286 285 285
288 287 288 288 289 289 288 287 286 286 286 286 285 285 285 285 284 284 286 287 288 288 288 288 288 288 288 289 289 289 289 288 288 287 287 286 285 285
285 285 286 285 285 286 285 285 287 286 285 285 285 285 284 284 283 282 282 283 284 285 286 285 286 286 288 289 288 288 289 288 288 287 287 286 286 286
285 284 282 282 282 282 284 283 282 282 284 284 284 284 284 283 283 282 282 281 281 281 281 280 281 281 282 284 284 284 285 285 286 287 287 287 287 286
284 283 282 281 282 282 282 280 280 282 282 282 282 283 283 282 281 279 279 278 278 278 278 277 277 278 279 280 282 282 282 283 284 285 286 286 287 287
282 282 282 282 282 282 281 280 281 281 280 280 280 281 279 279 278 278 278 277 277 277 277 278 278 278 278 278 279 280 281 282 283 284 284 286 287 288
283 282 282 281 281 281 281 281 281 279 278 279 278 277 277 276 276 276 276 276 276 276 276 277 277 278 278 278 279 279 280 281 281 282 283 284 285 287
281 280 280 279 279 278 278 278 277 277 276 275 274 274 274 274 274 273 273 273 274 274 275 275 275 276 276 276 277 277 278 279 280 280 281 282 284 285
279 278 277 277 276 275 275 275 274 274 273 272 272 272 272 272 272 271 272 272 273 273 273 273 274 274 275 275 276 277 278 279 280 280 281 282 284 284
276 275 275 274 273 273 273 272 272 271 270 270 270 270 270 270 270 270 270 271 271 271 271 271 272 273 275 276 275 276 275 274 275 277 279 280 282 282
273 273 273 272 271 271 271 270 270 269 269 269 269 269 269 269 269 269 270 270 270 270 270 271 272 272 273 273 273 273 273 274 275 277 279 279 280 285
271 271 271 270 270 269 269 269 269 269 268 268 268 268 268 268 268 268 268 269 269 270 270 270 270 270 271 272 273 274 274 275 275 277 278 279 279 285
270 270 269 269 268 268 268 268 268 267 267 267 267 267 267 267 267 268 268 268 269 269 269 269 270 270 271 272 273 273 274 274 275 276 277 277 278 286
268 268 268 268 267 267 267 266 266 266 266 266 266 266 266 266 267 267 268 268 268 269 269 269 270 270 270 271 272 273 274 275 276 276 277 282 282 284

GFSNE_925_thetae_102.txt.gz
Theta_e
319 318 319 320 321 323 322 321 319 319 317 317 317 317 316 316 315 315 314 313 312 311 309 309 308 307 306 305 304 305 306 307 306 306 306 305 303 303
321 321 321 320 320 322 322 323 321 319 319 318 317 317 317 317 316 314 313 312 312 311 310 310 310 308 306 305 304 303 302 302 303 303 303 302 301 300
321 322 321 320 322 323 323 323 322 320 318 318 317 317 317 316 315 314 313 311 311 311 312 312 309 307 306 304 303 302 300 299 298 296 295 296 298 299
322 323 323 323 323 323 323 323 322 320 318 319 318 316 315 314 314 313 311 311 310 311 310 308 307 306 304 303 301 298 296 296 295 296 296 296 296 298
322 323 323 322 323 323 323 321 321 320 318 316 315 314 313 312 312 311 310 310 308 305 304 304 303 301 301 299 297 296 295 295 295 295 295 295 294 294
323 322 320 319 315 315 314 313 312 312 313 313 312 310 308 306 304 303 303 303 302 302 300 299 299 298 298 297 296 294 294 294 293 292 292 292 292 292
317 313 305 301 301 301 303 302 302 303 302 301 300 298 296 295 295 295 296 297 298 298 298 297 296 296 296 295 294 293 292 292 292 292 292 292 291 288
306 299 295 294 293 294 293 294 296 295 295 294 292 292 290 290 291 291 291 291 292 293 293 292 292 292 292 292 292 292 292 292 292 291 290 289 288 288
295 293 291 291 291 291 291 290 291 291 290 290 289 288 288 288 288 289 289 289 290 290 289 289 290 290 291 291 290 290 290 290 289 289 289 288 288 287
290 289 289 289 289 289 289 288 287 287 286 286 286 286 286 286 285 285 285 286 287 287 287 288 288 288 288 288 288 289 290 290 289 289 289 288 288 287
286 286 286 286 286 287 286 287 287 285 285 285 285 285 284 284 284 283 283 283 284 285 284 283 286 285 285 286 287 288 289 289 289 289 289 288 288 287
284 283 283 283 283 284 283 282 282 283 283 283 283 283 284 284 284 283 282 281 282 284 282 280 281 281 282 283 286 284 283 283 284 285 287 288 288 287
284 282 282 283 282 282 280 280 281 282 282 282 282 282 282 281 280 279 278 278 278 278 278 278 278 278 279 279 279 279 280 281 282 283 284 284 286 287
282 282 282 282 282 281 281 281 281 280 279 279 280 279 278 278 277 277 277 277 277 277 277 277 278 277 277 278 278 278 278 279 279 281 282 283 284 285
282 282 281 281 281 280 280 280 278 277 277 276 276 275 275 275 275 274 274 274 274 274 274 274 275 276 277 278 278 278 278 279 279 280 281 282 283 284
281 280 279 279 278 278 277 276 276 275 274 273 273 273 273 273 272 272 272 272 272 272 273 273 274 274 274 275 276 276 277 277 277 278 278 279 280 281
279 277 276 276 275 275 274 274 273 272 271 271 271 271 271 271 271 271 271 271 271 271 272 272 272 272 272 273 274 274 275 276 276 276 276 278 280 281
276 275 274 274 273 273 272 272 271 271 270 270 270 270 270 270 270 270 269 270 270 270 270 270 270 271 271 272 273 274 273 273 273 273 274 276 278 280
274 273 272 272 271 271 271 270 270 269 269 269 269 269 269 269 268 269 269 269 269 269 269 269 270 271 272 271 271 271 272 272 273 273 274 276 278 279
272 272 271 270 270 270 269 269 269 268 268 268 268 268 267 267 268 268 268 268 268 269 269 270 270 270 270 270 270 271 271 272 273 274 274 275 276 278
270 270 270 269 269 269 268 268 267 267 267 267 267 267 267 267 266 267 267 268 268 268 269 269 269 269 270 270 270 270 271 272 273 274 274 275 276 277
269 269 268 268 268 267 267 266 266 266 266 266 266 266 266 265 266 266 267 267 267 267 268 268 269 269 269 269 270 270 271 271 272 274 275 276 276 277
267 267 266 267 266 266 265 265 265 265 265 265 265 265 264 265 265 266 266 266 266 267 267 267 268 268 269 269 270 270 271 272 272 273 274 277 278 279

GFSNE_925_thetae_105.txt.gz
Theta_e
320 320 320 320 320 319 319 320 320 319 318 318 318 318 318 318 317 317 317 316 316 315 314 314 314 312 311 310 309 310 311 311 311 311 309 309 309 309
319 319 319 319 318 318 319 319 320 320 320 320 319 318 318 317 318 317 317 317 316 315 315 314 313 313 312 311 310 308 308 308 310 310 310 309 308 306
320 321 321 320 320 320 320 320 321 321 320 320 320 320 319 318 317 317 317 316 316 315 314 313 313 311 311 310 308 309 307 307 307 307 307 306 306 305
319 319 319 320 321 321 321 321 321 321 321 321 320 320 318 317 316 315 313 313 313 312 310 310 309 309 308 308 307 306 305 305 304 304 303 303 300 298
319 320 321 322 321 321 320 319 317 318 317 314 313 313 313 312 309 308 307 307 306 305 305 305 305 305 305 305 304 303 301 301 302 301 299 297 296 295
320 319 318 316 313 311 310 309 308 307 308 306 304 302 300 299 297 296 296 297 298 298 298 299 299 299 299 299 297 297 298 298 297 296 295 294 293 293
312 307 303 300 299 300 301 299 299 300 298 296 294 294 291 291 290 290 291 292 293 293 293 294 294 294 294 294 294 295 295 295 294 293 293 292 292 292
300 296 294 293 293 292 292 292 293 292 291 290 288 289 287 287 287 288 288 289 290 290 288 288 288 289 289 290 291 291 291 291 291 291 291 290 290 290
293 292 290 290 290 290 289 288 287 287 287 287 286 285 285 285 284 284 284 284 286 285 286 287 287 287 287 287 288 288 288 288 289 289 290 289 289 289
289 288 288 288 288 288 288 286 286 285 285 285 285 285 284 284 284 283 283 282 282 283 282 283 283 281 281 282 285 286 287 288 287 287 287 288 289 289
285 285 286 285 285 284 284 283 283 283 283 283 283 284 284 283 280 279 278 278 279 279 280 278 279 278 278 279 281 281 281 280 280 281 282 283 284 285
283 283 283 281 281 281 281 282 282 281 280 280 281 280 279 278 277 277 277 277 278 277 278 277 277 277 277 278 278 277 277 278 278 279 281 282 283 283
283 282 282 281 281 281 281 280 279 278 279 279 277 276 275 275 274 274 274 274 275 275 275 274 275 275 275 276 276 277 277 278 277 278 278 280 282 282
282 282 282 281 281 279 278 277 276 276 275 274 273 273 273 273 273 272 272 271 271 272 272 272 273 274 274 274 275 275 275 276 277 277 278 278 278 279
280 280 279 278 277 276 276 274 273 272 272 272 272 272 271 271 271 271 270 270 270 270 271 272 272 272 271 272 272 273 273 274 275 275 276 277 277 278
278 277 276 274 274 273 272 272 271 270 271 270 270 269 270 269 269 269 269 269 270 270 270 270 270 270 270 271 271 272 273 274 273 272 272 273 274 275
275 274 273 272 272 271 271 270 269 269 269 269 269 269 268 268 268 268 268 269 269 269 269 269 269 269 270 271 271 272 271 271 271 271 272 273 274 275
272 271 271 271 270 270 269 269 269 269 268 268 268 267 267 267 267 267 268 267 267 268 268 268 269 269 269 269 270 270 270 270 271 272 272 273 274 274
271 270 270 269 269 269 269 268 268 267 267 267 267 266 266 266 266 266 266 267 267 267 268 268 268 269 269 268 269 269 270 270 271 271 272 273 273 274
270 269 269 268 268 268 267 267 267 266 266 266 266 266 265 265 265 265 266 266 266 267 267 267 268 268 268 269 269 268 269 270 270 271 272 272 273 274
268 268 267 267 267 266 266 266 265 265 265 265 265 265 264 264 264 264 265 265 266 266 266 267 267 267 267 268 268 268 269 269 270 271 272 273 273 274
267 266 266 266 266 265 265 264 264 264 264 264 264 263 263 263 263 263 264 264 264 265 266 266 266 267 267 268 268 268 269 269 270 271 272 273 273 273
265 265 265 265 265 264 264 264 264 263 263 263 263 262 262 262 262 262 262 262 264 264 264 265 266 267 267 267 268 269 269 269 270 271 272 274 274 275

GFSNE_925_thetae_108.txt.gz
Theta_e
317 317 319 320 319 318 318 318 318 318 316 318 318 318 318 319 319 318 318 317 316 317 317 317 317 316 315 314 314 313 312 311 311 312 314 312 311 310
317 319 319 320 320 320 320 319 319 319 319 318 318 318 319 319 319 318 318 317 317 316 315 314 314 314 314 313 312 311 310 310 310 310 310 313 312 313
317 317 318 316 318 319 319 319 319 319 318 319 318 319 319 319 319 316 317 317 315 313 311 311 310 309 309 309 309 308 308 307 307 308 308 310 310 310
316 318 318 318 319 319 320 320 320 320 319 319 320 320 318 315 314 314 311 308 308 307 306 304 303 304 304 303 304 304 304 304 304 304 304 304 306 307
318 319 319 319 319 319 318 317 315 313 312 309 309 308 306 304 303 302 301 299 299 297 297 297 297 297 297 297 297 297 297 297 298 299 300 301 302 302
318 317 314 311 312 310 309 307 306 306 304 300 298 296 294 292 292 290 291 291 292 292 292 292 292 291 291 292 292 293 293 293 294 295 296 296 296 297
310 307 302 298 297 299 299 298 297 297 294 292 291 289 288 287 287 287 287 286 288 290 288 287 287 287 287 287 288 288 289 289 290 290 291 291 291 292
301 296 295 294 293 292 292 293 293 292 290 290 287 287 285 284 284 283 283 284 286 286 283 283 284 285 283 282 283 284 286 287 288 288 288 288 289 289
294 292 290 290 290 289 289 289 287 286 286 285 284 284 284 283 282 282 281 281 281 282 281 281 282 281 279 278 279 283 282 281 281 281 281 282 283 284
290 289 288 287 287 287 286 285 284 283 283 284 283 282 281 280 279 278 278 278 278 278 278 278 277 277 276 276 278 280 278 278 278 279 280 280 281 282
285 285 285 284 284 284 284 282 281 281 282 281 280 280 278 277 276 276 275 275 275 276 275 274 275 275 274 276 277 276 276 276 277 278 279 279 279 280
282 282 281 281 282 282 281 279 279 279 279 279 278 276 275 274 273 273 272 273 273 274 274 272 273 273 273 274 274 274 274 275 274 275 276 277 279 279
282 282 281 281 279 279 278 277 276 276 275 274 273 272 272 271 271 270 270 270 271 271 271 272 272 272 272 273 272 272 272 272 272 273 274 275 276 277
282 281 280 279 277 276 275 274 274 273 272 271 271 270 270 270 270 270 269 270 269 270 270 270 271 271 271 270 270 271 271 271 272 273 274 273 273 274
279 278 277 276 274 273 273 272 271 270 269 269 269 269 269 269 269 268 269 269 269 269 269 269 269 269 269 269 270 270 271 272 272 270 271 271 272 273
276 274 273 272 272 271 270 270 269 268 268 268 268 268 268 267 267 267 268 268 267 267 268 268 268 269 269 269 270 270 270 270 270 270 270 271 272 273
274 273 272 271 270 269 269 268 268 267 267 267 267 267 266 266 266 266 267 267 267 267 267 267 268 268 268 268 269 269 269 269 269 270 270 271 271 272
272 270 269 269 269 268 268 267 267 266 266 266 266 265 265 265 265 265 265 266 266 266 266 267 267 267 267 268 268 269 269 269 269 269 270 270 271 271
270 269 269 268 268 267 267 266 266 266 265 265 265 264 264 264 264 264 264 265 265 265 266 266 266 267 267 266 267 268 268 268 269 269 269 270 270 271
268 268 268 267 267 266 266 265 265 265 265 264 264 264 263 263 263 263 263 263 264 264 265 265 266 266 266 266 267 267 267 268 269 269 270 270 270 271
267 267 267 266 265 265 265 264 264 264 264 264 263 263 263 262 262 262 262 262 263 263 264 265 265 265 266 266 266 267 267 268 269 270 270 271 271 272
266 266 265 265 265 264 264 264 264 263 263 263 263 262 262 262 261 261 261 261 261 262 263 263 264 265 265 266 266 267 267 268 268 270 271 272 272 271
265 265 265 264 264 263 263 263 263 263 263 262 262 262 262 262 262 261 261 261 261 261 262 263 264 264 264 265 266 267 268 269 270 271 273 275 274 274

GFSNE_925_thetae_111.txt.gz
Theta_e
319 317 317 318 317 319 319 316 316 318 317 317 317 317 317 317 317 318 318 319 318 315 313 311 312 315 314 313 313 312 311 310 310 310 311 311 312 316
320 320 319 317 317 317 319 319 319 317 318 318 318 317 318 318 318 317 317 316 314 314 314 313 312 311 310 310 309 308 308 308 307 307 307 308 308 309
319 319 318 317 316 318 319 317 319 318 318 318 318 319 318 317 317 314 312 312 309 308 307 306 305 304 304 303 302 302 301 301 302 302 302 302 303 304
318 318 317 317 318 318 317 318 319 318 318 318 319 314 312 306 305 305 303 300 299 297 297 296 296 295 295 294 294 295 294 294 295 295 296 297 298 298
318 318 317 317 318 318 317 316 317 315 312 310 305 303 300 300 299 296 295 295 292 291 292 291 290 289 289 289 289 289 289 289 290 290 291 292 292 293
318 317 316 315 313 312 311 308 306 304 302 300 296 294 292 290 289 288 287 287 288 288 288 286 284 285 285 286 285 284 286 286 286 287 287 288 288 289
312 308 305 305 305 303 301 299 298 296 294 292 290 288 286 285 284 283 283 283 286 286 282 283 281 282 282 282 282 281 282 283 282 282 282 282 283 283
304 297 295 294 294 294 293 293 293 292 289 286 285 285 283 283 282 281 280 280 281 281 279 278 279 280 278 277 277 278 281 280 280 279 279 280 281 281
296 293 290 290 290 290 288 288 287 286 286 284 282 281 279 278 279 278 277 277 277 277 277 277 278 276 275 274 275 278 278 278 277 277 278 278 279 280
291 290 288 288 287 287 286 284 282 282 282 281 279 278 277 277 275 275 274 273 274 275 275 274 274 274 273 273 275 277 276 276 275 275 275 275 277 278
288 287 286 285 284 286 285 282 280 279 277 277 276 276 275 274 273 273 271 271 272 272 273 271 272 272 272 273 274 273 274 273 273 273 273 274 275 275
284 283 283 283 283 282 281 279 277 276 276 276 274 273 272 271 271 270 270 270 270 270 271 271 271 271 271 272 272 271 270 271 271 272 273 274 275 275
281 280 280 279 278 277 277 276 275 274 273 272 271 271 270 270 269 269 269 269 269 269 270 270 270 270 269 270 270 269 270 270 270 271 272 272 272 272
280 279 278 276 275 274 274 273 273 272 271 270 270 269 269 268 268 268 268 268 268 268 268 268 269 268 269 269 269 269 269 270 270 270 271 270 270 270
278 277 276 274 273 273 272 271 271 270 269 268 268 267 267 267 267 267 267 267 267 267 268 268 268 268 268 268 269 269 269 269 269 270 269 270 270 270
275 274 274 272 271 270 270 269 268 268 267 267 267 267 267 266 266 266 266 266 266 267 267 267 267 267 267 268 268 268 268 269 269 269 269 269 269 270
273 272 271 270 270 269 268 268 267 267 267 266 266 266 265 266 265 265 265 265 265 265 265 266 266 266 266 267 267 267 268 268 268 268 268 269 269 269
272 270 269 269 268 268 267 266 266 266 266 265 265 264 264 264 264 265 264 264 264 264 265 265 265 265 266 266 267 267 267 267 268 267 268 268 269 269
270 269 268 268 267 267 266 266 265 265 265 264 264 264 264 264 263 263 263 263 263 263 264 264 265 265 265 264 266 267 267 267 267 268 268 268 269 269
268 268 267 267 266 266 265 265 265 265 264 264 264 264 263 263 263 263 262 261 262 262 263 263 264 264 264 264 265 265 266 267 268 268 268 269 269 270
267 267 266 266 265 265 265 264 264 264 264 264 264 263 263 263 262 262 261 261 261 261 262 263 263 263 264 264 265 265 266 267 268 269 269 270 270 271
266 266 265 265 265 264 264 264 264 264 264 264 263 263 263 262 262 261 261 260 260 261 261 262 262 263 263 264 265 265 267 268 270 271 272 272 272 272
266 265 264 264 264 263 264 264 264 264 263 263 263 263 262 263 262 262 261 262 261 261 261 261 262 263 263 264 265 267 268 269 271 273 278 278 277 276

GFSNE_925_thetae_114.txt.gz
Theta_e
318 316 316 317 317 317 317 318 316 316 316 317 317 317 317 317 317 317 315 315 314 313 313 312 311 310 310 308 310 309 308 308 307 307 307 307 308 308
317 317 317 317 316 316 317 318 318 316 318 318 318 318 317 317 316 315 313 312 310 306 303 301 301 302 303 302 301 301 301 300 299 298 298 298 299 300
318 318 318 317 317 317 318 318 317 317 317 318 318 317 316 312 308 307 304 302 300 299 296 296 294 294 293 293 294 294 294 293 293 293 292 292 293 294
319 318 318 318 319 318 317 317 317 318 317 317 315 309 306 300 300 299 297 294 293 292 292 290 290 288 288 288 288 288 287 287 286 287 287 287 288 288
320 319 319 318 318 317 317 317 317 316 313 312 301 298 296 296 293 292 292 291 290 290 290 286 283 284 283 283 283 283 283 283 284 283 283 283 283 284
318 318 317 317 317 316 314 313 311 308 305 304 297 292 292 290 289 288 285 285 286 286 284 282 280 280 280 280 279 278 278 282 282 281 281 280 281 281
313 312 311 311 311 310 308 304 302 300 297 293 289 287 285 284 282 281 281 281 282 283 280 279 277 278 278 277 276 276 279 281 279 279 278 279 278 278
305 300 298 301 300 300 299 298 297 296 292 287 285 281 280 280 279 278 277 278 279 279 276 276 276 276 275 275 275 276 279 278 277 277 276 276 276 276
302 297 292 291 292 292 291 290 289 288 287 286 281 279 277 276 277 275 274 275 275 275 274 275 275 273 273 273 275 276 277 276 275 274 275 275 275 275
292 290 289 287 287 287 286 283 281 281 280 279 278 276 275 275 273 272 272 272 273 274 272 272 272 272 271 273 274 275 274 273 273 273 274 273 274 275
288 287 287 285 284 284 283 280 278 277 277 276 275 274 273 272 271 272 271 271 271 272 271 270 271 271 271 272 272 272 271 271 271 272 272 273 273 274
284 284 283 282 282 283 281 278 276 275 274 273 272 272 271 271 270 270 270 270 270 269 270 269 270 269 270 270 270 270 270 270 270 270 271 272 272 273
280 279 279 281 280 279 278 277 275 273 272 272 271 270 270 270 269 269 269 269 269 269 269 269 268 269 268 269 269 269 269 269 269 269 270 270 271 271
278 277 277 276 275 274 273 272 272 272 271 270 270 269 268 268 268 269 268 268 268 268 268 268 268 268 268 268 268 269 268 269 269 269 269 270 270 270
277 276 275 274 273 272 271 271 271 271 270 269 268 267 268 268 268 268 268 268 268 268 267 267 267 267 267 267 268 268 268 268 268 269 268 269 269 269
275 274 272 271 271 270 270 269 269 269 268 268 267 267 267 267 267 267 267 267 268 268 267 266 266 266 266 266 267 267 268 268 268 268 268 268 268 268
273 271 271 270 269 269 268 268 268 268 267 267 267 266 266 266 266 266 265 265 265 265 265 267 266 265 265 266 266 267 267 267 268 267 268 268 268 268
272 270 269 269 268 268 267 267 267 266 266 266 266 266 266 266 266 265 264 264 263 264 264 264 264 264 265 266 267 268 267 267 267 267 268 268 268 268
270 269 268 268 267 267 266 266 265 265 265 265 265 265 265 265 265 264 263 263 263 263 263 263 263 264 265 265 265 267 267 266 267 267 268 268 268 269
269 268 267 267 266 266 266 266 265 265 265 265 265 264 264 264 264 264 264 262 261 261 262 263 263 263 263 264 264 267 266 267 268 269 270 270 271 271
267 267 267 267 266 266 265 265 265 265 265 264 264 264 264 264 264 264 263 263 261 261 262 262 263 262 263 263 264 266 271 270 270 272 273 273 272 273
267 266 266 266 265 265 264 265 265 264 264 265 265 264 264 264 264 264 263 262 261 261 261 262 263 263 264 264 265 266 268 272 279 279 279 278 275 274
266 266 265 265 264 265 265 264 264 264 264 264 264 264 264 265 264 264 263 262 261 260 261 262 262 263 264 264 265 267 268 269 271 275 280 279 279 279

GFSNE_925_thetae_117.txt.gz
Theta_e
317 317 317 316 316 317 317 317 317 319 319 317 317 317 317 318 317 317 313 310 312 311 310 309 307 304 303 305 303 302 301 303 303 303 303 303 302 300
317 317 316 316 317 317 317 317 317 317 317 318 317 318 317 315 313 311 306 302 299 298 298 299 298 297 295 294 295 294 292 291 292 291 292 292 292 293
317 318 316 317 317 317 316 316 317 318 317 318 318 314 310 308 303 301 299 297 295 293 292 290 289 290 289 288 288 288 288 287 287 287 287 287 288 288
318 318 318 318 318 317 317 317 317 317 317 317 315 306 301 298 296 296 294 292 292 290 291 287 283 284 283 282 282 281 281 280 283 284 284 283 283 283
317 317 317 318 318 317 318 317 317 317 317 317 305 299 293 293 292 291 290 289 288 288 285 282 280 279 279 279 278 278 279 281 282 281 281 280 280 280
318 318 318 318 317 318 317 317 316 315 312 308 298 292 290 288 288 284 284 282 284 284 280 278 279 279 278 278 277 277 278 281 280 280 279 278 278 278
317 316 315 316 317 316 314 310 310 307 303 298 290 286 284 282 281 280 280 280 282 279 278 279 280 278 278 277 276 276 278 279 278 278 277 276 276 277
308 306 304 306 306 306 305 302 300 298 293 287 282 281 280 279 278 277 277 279 281 279 277 278 278 277 276 275 275 275 277 277 276 275 275 275 276 275
304 299 295 292 296 295 293 293 291 290 289 286 281 278 276 276 276 276 276 277 278 277 275 278 276 276 275 275 275 275 276 275 274 274 274 275 275 275
292 291 290 289 289 290 289 285 282 281 280 279 278 275 274 273 274 274 275 275 276 276 273 275 275 275 274 274 274 274 274 274 274 274 274 274 274 274
288 287 288 286 285 286 285 279 277 276 276 275 274 273 273 274 273 274 274 275 275 274 273 272 274 273 273 274 274 273 273 273 273 273 273 273 273 273
283 283 283 283 282 283 281 278 275 274 273 273 273 272 271 271 271 271 272 272 272 274 272 271 272 272 273 273 273 273 273 273 272 272 272 272 273 273
281 280 280 280 281 279 279 277 275 273 273 272 272 272 271 271 270 270 270 270 271 271 271 270 271 271 271 272 272 272 273 273 273 273 273 273 272 272
278 278 278 277 276 275 275 274 273 273 272 272 272 271 270 270 270 270 270 269 269 269 269 269 270 270 270 271 272 273 273 273 273 273 273 272 272 272
277 276 276 275 274 273 272 272 272 271 271 271 270 270 269 269 269 269 269 269 269 269 268 269 269 269 270 270 271 272 271 272 272 272 272 272 272 271
275 274 273 272 272 271 271 271 270 270 271 270 269 269 269 269 269 268 269 269 270 270 269 269 268 268 269 270 270 271 272 272 272 272 272 272 272 272
274 272 271 271 271 270 270 269 269 269 269 269 269 269 268 268 268 268 268 268 269 269 269 269 268 268 269 269 270 271 272 273 273 271 271 272 273 274
273 272 271 271 271 270 269 269 268 268 267 267 267 267 267 268 267 268 267 268 268 268 268 268 268 269 271 272 270 271 271 272 272 272 273 274 275 276
272 271 270 270 270 269 269 268 267 266 266 266 266 266 266 267 267 267 267 267 268 268 268 268 268 269 270 272 271 270 271 270 272 274 276 277 277 278
270 270 270 269 269 268 268 267 266 266 266 266 266 265 265 266 267 267 267 266 266 267 268 268 268 267 267 267 267 270 269 271 273 275 277 279 280 279
269 269 269 268 268 267 266 266 266 265 265 265 265 265 266 264 265 266 266 265 265 267 267 267 267 265 267 268 270 272 274 274 274 274 277 281 281 281
268 267 267 266 266 266 266 265 265 265 265 265 265 265 264 264 265 265 265 265 266 266 266 266 267 267 268 269 270 271 273 274 278 278 280 279 279 281
267 266 266 266 266 265 265 265 265 265 265 265 264 264 265 264 264 265 265 265 265 265 266 266 267 268 269 270 270 272 273 275 277 278 281 280 279 278

GFSNE_925_thetae_120.txt.gz
Theta_e
323 323 322 321 322 321 320 320 320 322 320 319 317 314 314 314 312 313 311 309 312 308 307 306 303 301 301 300 300 299 297 297 296 295 293 293 293 294
322 323 322 322 321 319 317 320 320 320 321 319 316 314 313 309 306 309 305 303 299 297 296 296 295 294 293 292 292 291 289 288 287 288 288 288 288 288
320 321 321 320 317 317 317 317 317 317 318 318 316 308 304 305 301 298 298 297 294 292 289 289 289 287 286 284 282 281 281 281 282 285 284 284 284 284
319 319 319 318 317 317 317 317 317 317 317 317 309 302 299 299 296 296 292 290 291 290 287 283 282 281 280 280 279 279 280 280 283 282 282 281 281 281
319 318 318 317 317 317 317 317 317 317 317 317 304 298 292 292 291 291 290 288 287 287 283 280 280 279 280 279 279 278 279 281 282 280 280 279 279 279
317 317 317 317 315 317 317 317 317 317 316 312 297 292 288 288 289 286 285 283 283 282 279 279 281 280 280 278 278 278 279 280 279 278 278 277 277 277
316 317 317 315 316 316 317 317 317 313 307 298 291 287 285 284 283 280 280 282 281 279 279 280 281 281 281 280 279 277 277 278 277 277 277 277 277 277
307 307 306 315 315 316 315 310 308 307 300 291 285 283 281 279 278 278 279 281 282 280 279 282 281 281 280 278 277 276 276 277 277 276 276 276 276 276
300 300 299 297 304 304 300 299 297 296 296 291 284 280 278 277 277 278 279 280 280 278 278 280 279 279 278 277 277 276 276 276 276 276 276 276 276 276
293 292 297 293 294 297 294 290 286 284 283 281 278 276 276 276 276 277 278 279 279 279 275 278 277 276 276 276 276 276 276 276 276 276 275 275 275 275
288 289 291 289 287 291 290 281 277 276 276 276 275 275 275 275 276 277 278 279 279 278 275 275 277 276 276 277 277 276 276 275 275 275 276 276 275 275
284 285 286 284 283 284 283 278 275 275 274 274 274 274 273 273 274 275 276 277 277 279 275 275 276 275 277 277 276 276 276 277 277 277 276 276 276 276
282 281 280 280 280 280 278 276 275 274 274 274 274 274 274 274 273 273 273 275 275 276 273 273 274 275 275 276 276 277 277 277 277 277 277 277 276 276
280 279 278 278 277 276 276 275 275 274 275 275 275 274 274 274 274 273 273 273 272 272 272 272 273 273 274 275 276 276 277 277 277 278 278 278 277 277
278 278 277 276 276 275 275 274 274 275 275 275 275 274 273 273 273 273 273 273 273 272 272 272 272 272 273 274 275 276 276 278 278 278 278 277 278 278
276 274 274 274 274 273 273 274 275 275 275 274 273 273 273 273 273 272 273 273 275 274 273 272 271 272 273 274 275 276 278 278 278 278 277 279 280 280
274 274 274 274 275 274 273 273 274 273 273 273 273 273 272 273 272 272 273 274 275 274 274 273 273 273 274 275 276 277 277 278 278 277 278 280 281 282
277 276 276 276 275 274 273 272 272 272 272 272 272 272 273 272 273 273 273 273 274 274 273 273 273 275 276 277 275 276 277 277 276 278 280 281 282 283
276 275 274 274 274 273 272 271 271 271 271 271 271 271 272 272 273 273 273 273 273 272 273 273 274 274 275 278 276 274 274 275 276 278 279 281 283 283
275 275 274 273 273 272 272 271 271 271 271 271 271 270 271 272 272 272 272 271 271 272 273 273 273 272 271 273 272 274 274 276 276 277 278 280 282 282
274 274 273 273 272 272 272 271 271 271 270 270 270 270 270 271 271 271 272 270 270 272 272 272 272 270 271 273 275 277 277 277 277 277 279 281 281 282
273 272 272 271 271 271 270 270 270 270 270 270 270 269 269 270 271 271 271 271 271 271 271 271 272 272 274 274 276 276 277 278 280 280 281 281 280 281
272 271 271 270 270 270 270 270 270 270 269 269 269 269 268 269 269 270 270 271 271 270 271 271 272 273 274 275 275 276 278 279 280 281 282 282 282 281

GFSNE_925_thetae_126.txt.gz
Theta_e
324 324 324 324 325 324 324 324 322 323 322 319 314 314 316 314 314 315 313 311 312 311 308 305 304 301 299 298 297 293 289 287 289 288 288 288 288 288
323 324 324 325 324 324 324 323 323 322 321 318 309 307 309 308 308 309 302 301 301 301 299 297 296 294 294 290 286 283 282 285 286 286 285 285 285 285
323 324 324 324 324 323 322 324 323 322 317 306 306 303 303 305 302 303 299 298 295 294 293 293 289 287 285 283 282 281 281 283 282 281 282 282 282 283
323 323 322 323 323 323 323 324 323 322 317 307 300 299 297 297 299 298 296 294 293 292 291 289 286 283 282 281 281 280 279 279 279 280 280 280 280 281
323 322 322 321 322 322 322 322 322 321 317 308 299 298 293 294 293 293 293 291 290 291 287 284 283 282 281 280 280 280 278 279 279 279 279 279 279 280
323 323 323 323 322 322 322 321 321 319 315 308 302 297 293 291 292 290 288 287 286 284 283 282 282 282 281 281 280 280 278 278 278 279 279 279 279 279
321 323 323 321 322 322 321 320 319 317 314 309 299 294 289 287 290 288 286 285 281 280 282 282 282 282 281 280 280 279 278 278 279 279 279 279 279 279
319 320 321 321 322 322 320 319 318 316 312 312 306 297 290 289 288 288 285 283 283 280 282 282 281 281 281 280 279 278 278 278 279 279 279 279 280 279
316 318 318 316 321 318 318 317 317 315 312 312 307 294 286 286 287 285 285 284 281 279 281 282 281 280 280 279 279 278 279 279 279 279 280 280 279 279
304 304 312 306 308 314 312 307 303 302 304 304 298 291 291 287 287 284 282 281 279 278 279 282 280 279 279 280 279 279 279 280 280 280 280 280 280 280
296 297 298 297 296 300 300 293 287 284 286 290 289 285 282 280 281 282 281 281 281 279 277 280 279 278 279 280 279 279 279 280 280 280 280 281 281 281
289 290 292 293 291 300 302 292 280 279 280 279 279 279 281 281 282 282 282 282 281 279 276 279 278 277 278 279 278 279 279 280 280 280 281 281 281 281
284 283 283 284 285 287 289 284 280 279 279 279 277 276 276 276 277 279 279 279 279 276 274 277 277 276 277 277 278 279 279 281 281 281 281 280 281 282
281 281 280 280 280 281 281 278 277 277 276 276 276 276 276 276 276 276 276 277 277 275 274 274 275 275 275 276 278 278 280 281 281 281 280 280 282 282
280 280 280 279 279 278 278 277 277 277 277 277 277 276 276 276 276 276 276 276 276 275 274 274 274 274 275 276 277 278 278 280 281 280 279 280 280 281
279 278 278 278 278 278 278 278 278 278 278 277 276 276 276 276 276 276 276 277 277 276 276 276 275 275 276 276 277 278 279 279 280 279 278 279 280 281
277 278 278 278 278 278 278 278 278 277 277 277 276 276 276 276 276 276 277 277 277 276 276 276 276 277 278 278 278 279 279 278 278 278 278 279 280 280
278 278 278 278 278 278 278 277 277 276 276 276 276 276 277 276 276 276 276 276 276 276 276 276 276 276 277 279 279 278 277 277 277 278 278 279 279 281
279 278 278 278 277 276 276 276 276 276 276 276 276 275 276 276 276 276 275 275 275 276 276 276 276 275 274 269 276 277 277 278 278 278 279 279 280 281
277 277 277 276 276 276 275 275 275 275 275 275 275 276 276 276 276 275 274 274 275 275 275 275 274 274 273 274 274 276 278 278 278 279 279 280 281 282
278 277 276 276 275 275 275 275 275 274 274 274 274 275 275 274 274 275 274 274 274 274 274 274 274 274 275 276 276 277 278 278 279 280 281 281 281 282
276 276 275 276 276 275 275 274 274 274 274 273 273 274 274 274 274 274 273 274 274 273 274 273 273 274 275 276 277 277 278 278 280 279 280 281 282 282
275 275 275 274 274 274 274 274 274 273 273 273 272 272 273 272 273 273 273 273 273 273 272 272 272 274 274 275 277 277 277 278 279 278 279 281 282 283

GFSNE_925_thetae_129.txt.gz
Theta_e
324 324 324 324 323 322 321 319 320 320 319 315 311 310 314 317 316 316 314 311 313 312 310 309 307 305 301 298 296 293 291 290 289 288 287 287 288 288
324 324 324 324 323 323 322 321 320 320 320 314 307 305 308 309 308 310 306 304 303 304 304 304 300 297 295 293 288 286 286 285 285 285 285 285 285 286
324 324 324 324 323 324 323 322 321 319 315 302 304 303 301 303 302 303 300 301 299 299 298 297 295 295 288 284 282 282 282 282 282 281 282 283 284 284
323 324 324 323 323 323 323 322 322 321 315 303 298 298 297 299 299 300 297 295 295 293 293 292 290 286 283 281 282 280 280 279 279 279 280 280 281 282
322 323 324 323 321 323 323 322 321 319 314 305 299 296 292 295 294 294 294 292 292 291 288 286 283 282 281 281 281 279 278 279 279 280 280 280 280 281
322 323 323 323 323 323 323 320 318 315 311 304 298 294 291 290 293 291 288 288 288 288 287 283 282 281 281 281 280 280 278 279 280 280 280 280 280 280
323 322 323 322 322 322 322 321 317 310 305 300 296 292 290 288 290 289 286 286 284 285 283 283 282 282 282 281 280 279 279 279 279 279 280 280 280 280
321 322 322 322 322 321 321 321 320 316 305 301 298 294 292 291 290 290 286 283 283 282 282 282 281 281 280 280 279 278 279 279 279 280 280 280 280 280
319 320 319 321 321 321 320 321 318 315 316 315 305 298 292 294 294 288 287 287 282 281 282 280 281 280 280 279 279 279 279 280 280 280 280 280 281 281
316 315 315 313 319 320 316 313 312 311 309 311 310 305 302 295 293 290 288 283 279 280 282 282 280 279 279 279 279 279 280 280 280 280 281 281 281 281
303 303 303 305 310 317 309 299 294 291 295 301 303 296 294 291 291 290 281 282 281 278 279 281 279 278 279 279 279 279 279 280 280 281 282 281 281 282
293 292 295 295 292 302 306 296 286 284 286 286 284 286 285 284 284 285 285 283 280 278 278 279 278 278 279 279 279 279 280 280 281 281 280 281 282 282
288 288 289 292 294 294 296 294 287 285 283 283 282 282 283 283 283 284 284 283 281 276 276 278 277 277 277 277 279 279 280 281 281 280 280 281 282 282
284 283 282 286 287 289 288 282 283 283 281 279 278 277 278 279 280 280 279 279 278 276 276 277 275 276 275 277 277 279 280 281 280 280 280 280 281 282
282 281 281 281 280 279 279 279 280 278 278 277 277 276 276 276 275 276 276 276 275 275 276 276 276 276 276 276 276 278 278 279 280 280 279 280 280 280
281 280 279 279 279 278 278 278 278 278 277 277 276 276 276 276 277 277 277 276 276 276 276 276 276 276 277 277 277 278 278 278 278 278 278 279 280 281
279 279 280 279 279 278 278 278 277 277 277 276 276 276 276 276 277 277 277 277 276 276 276 276 277 277 277 278 278 278 278 278 278 278 278 279 280 281
279 279 279 279 278 278 278 277 277 277 276 276 276 276 276 277 277 277 276 276 276 276 276 276 276 276 278 278 278 278 278 278 278 278 279 279 280 281
279 279 278 278 277 277 277 277 277 276 276 276 276 276 276 276 276 276 276 275 275 275 275 275 274 274 272 268 275 277 277 278 278 279 279 279 280 281
278 277 277 277 276 276 276 276 276 276 276 276 276 276 276 275 274 274 275 275 275 275 274 274 274 274 274 274 275 276 277 277 278 278 279 280 280 281
277 276 275 275 275 275 275 275 275 275 276 276 276 275 275 275 274 274 274 274 274 274 273 273 273 274 275 275 275 276 277 277 278 279 279 280 280 281
276 275 275 275 275 275 275 274 274 275 275 275 274 274 274 274 274 274 274 273 273 273 272 272 273 274 274 275 276 276 276 277 278 277 278 279 279 281
275 275 275 275 275 274 274 274 274 273 274 274 274 274 273 273 273 273 273 273 272 272 271 271 272 273 274 274 275 274 275 277 277 277 279 281 282 282